     2              OBSERVATION DATA    G (GPS)             RINEX VERSION / TYPE
TRRINEXO V2.3.4 LH UCLA / SCEC 15-OCT-95 13:00              PGM / RUN BY / DATE
LOS ANGELES BASIN 1995                                      COMMENT
ARCHIVED BY: SOUTHERN CALIFORNIA EARTHQUAKE CENTER (SCEC)   COMMENT
ANTENNA DELTA H: DIRECT HEIGHT TO PRE-AMP BASE (DHPAB)      COMMENT
NOTE:                                                       COMMENT
FOR FURTHER INFORMATION CONTACT: DAVE JACKSON               COMMENT
UCLA / GEOLOGY BLDG., 595 CIRCLE DR E. RM 3806              COMMENT
LOS ANGELES CA 90024 DJACKSON@CYCLOP.ESS.UCLA.EDU           COMMENT
BIT 2 OF LLI (+4) FLAGS DATA COLLECTED UNDER "AS" CONDITION COMMENT
USGLO T7N R3E S19 S30 1919                                  MARKER NAME
J.DUTTON UCLA                                               OBSERVER / AGENCY
1051 TRIMBLE 4000 SST 4.81                                  REC # / TYPE / VERS
271 TRIMBLE 4000 SST                                        ANT # / TYPE
 -2361086.0000 -4691248.0000  3609067.0000                  APPROX POSITION XYZ
        0.8931        0.0000        0.0000                  ANTENNA: DELTA H/E/N
     1     2                                                WAVELENGTH FACT L1/2
     3    C1    L1    L2                                    # / TYPES OF OBSERV
    30                                                      INTERVAL
  1995    10    22     0     1   30.000000                  TIME OF FIRST OBS
                                                            END OF HEADER
 95 10 22  0  1 30.0000000  0  6 14 15 18 29 25 22
  20514940.922          -0.42217
  23383059.797          -0.04815
  24240500.742          -0.56613
  22151061.141          -0.89717
  22734442.484          -0.90316
  21680844.813          -0.83217
 95 10 22  0  2  0.0000000  0  6 14 15 18 29 25 22
  20501873.406      -68669.342 7        -0.25418
  23394554.344       60366.525 5        -0.16015
  24218227.297     -117041.242 3
  22134020.773      -89553.961 7        -0.35917
  22743017.297       45052.719 6
  21664231.508      -87307.117 7        -0.02917
 95 10 22  0  2 30.0000000  0  6 14 15 18 29 25 22
  20488902.648     -136835.761 7    -53116.939 8
  23406079.594      120865.138 5     47141.580 5
  24195957.188     -234059.890 3        -0.00211
  22116995.531     -179008.431 7    -69705.120 7
  22751618.242       90267.426 6        -0.08016
  21647713.789     -174106.478 7    -67635.859 7
 95 10 22  0  3  0.0000000  0  6 14 15 18 29 25 22
  20476024.633     -204506.334 7   -105847.241 8
  23417607.531      181486.081 5     94378.652 5
  24173701.813     -351057.668 4    -91167.065 2
  22099990.719     -268376.951 7   -139342.908 7
  22760249.719      135632.037 6     35348.947 6
  21631293.641     -260398.483 7   -134876.348 7
 95 10 22  0  3 30.0000000  0  6 14 15 18 29 25 22
  20463237.094     -271697.146 7   -158203.710 8
  23429161.172      242221.187 5    141704.685 5
  24151439.750     -468031.306 3   -182315.271 2
  22083004.242     -357655.687 7   -208910.730 7
  22768914.484      181139.726 6     70809.467 6
  21614965.406     -346197.560 7   -201732.737 7
 95 10 22  0  4  0.0000000  0  6 14 15 18 29 25 22
  20450543.859     -338411.156 7   -210188.641 8
  23440739.258      303072.501 5    189121.273 5
  24129187.391     -584969.244 4   -273435.723 2
  22066026.594     -446844.116 7   -278408.189 7
  22777606.141      226813.801 6    106399.652 6
  21598734.250     -431497.818 7   -268200.433 7
 95 10 22  0  4 30.0000000  0  6 14 15 18 29 25 22
  20437940.398     -404649.669 7   -261803.062 8
  23452339.164      364033.653 5    236623.446 5
  24106939.578     -701875.998 4   -364531.841 1
  22049070.297     -535949.043 7   -347840.581 7
  22786330.602      272658.278 6    142122.618 6
  21582595.703     -516301.244 7   -334280.995 7
 95 10 22  0  5  0.0000000  0  6 14 15 18 29 25 22
  20425428.313     -470409.319 7   -313044.338 8
  23463963.211      425109.196 5    284214.749 5
  24084688.289     -818764.058 5   -455613.398 2
  22032130.883     -624957.946 7   -417198.141 7
  22795086.578      318685.023 6    177987.599 6
  21566553.461     -600604.589 7   -399971.882 7
 95 10 22  0  5 30.0000000  0  6 14 15 18 29 25 22
  20413001.898     -535691.748 7   -363913.760 8
  23475608.133      486294.809 5    331891.815 5
  24062457.859     -935632.197 5   -546679.401 3
  22015221.078     -713862.591 7   -486474.458 7
  22803880.336      364895.497 6    213995.753 6
  21550604.648     -684396.030 7   -465263.890 7
 95 10 22  0  6  0.0000000  0  6 14 15 18 29 25 22
  20400672.281     -600496.833 7   -414411.212 8
  23487266.594      547580.630 5    379646.981 5
  24040217.047    -1052487.439 5   -637735.392 2
  21998312.344     -802680.133 7   -555682.918 7
  22812706.508      411274.153 6    250134.959 6
  21534764.156     -767657.741 7   -530143.122 7
 95 10 22  0  6 30.0000000  0  6 14 15 18 29 25 22
  20388435.234     -664797.237 7   -464515.415 8
  23498953.344      608977.844 5    427488.929 5
  24017985.469    -1169325.946 5   -728778.349 3
  21981432.359     -891391.511 7   -624808.647 7
  22821564.953      457821.795 6    286405.843 6
  21519021.852     -850376.205 7   -594599.039 7
 95 10 22  0  7  0.0000000  0  6 14 15 18 29 25 22
  20376294.508     -728600.951 7   -514232.586 8
  23510654.883      670466.455 5    475402.118 5
  23995756.133    -1286150.496 5   -819810.424 2
  21964571.000     -979995.870 7   -693850.988 7
  22830446.555      504512.153 6    322787.931 6
  21503385.070     -932562.836 7   -658640.554 7
 95 10 22  0  7 30.0000000  0  6 14 15 18 29 25 22
  20364246.188     -791899.691 7   -563556.266 8
  23522365.984      732049.329 5    523388.740 5
  23973530.281    -1402936.870 5   -910812.717 3
  21947737.984    -1068482.304 7   -762801.434 7
  22839362.531      551338.492 6    359275.987 6
  21487845.953    -1014208.231 7   -722260.317 7
 95 10 22  0  8  0.0000000  0  6 14 15 18 29 25 22
  20352299.711     -854687.480 7   -612481.809 8
  23534106.211      793720.651 5    571444.283 5
  23951308.766    -1519701.324 5  -1001797.959 3
  21930915.094    -1156859.471 7   -831666.743 7
  22848289.711      598288.505 6    395860.397 6
  21472413.844    -1095324.338 7   -785467.655 7
 95 10 22  0  8 30.0000000  0  6 14 15 18 29 25 22
  20340449.711     -916956.044 7   -661002.763 8
  23545858.492      855478.529 5    619567.280 5
  23929093.859    -1636451.219 5  -1092771.856 4
  21914122.500    -1245114.645 7   -900436.991 7
  22857253.313      645360.369 6    432539.754 6
  21457076.156    -1175924.830 7   -848273.215 7
 95 10 22  0  9  0.0000000  0  6 14 15 18 29 25 22
  20328702.563     -978700.035 7   -709114.952 8
  23557623.328      917319.301 5    667754.859 5
  23906885.695    -1753178.064 5  -1183727.802 4
  21897351.719    -1333247.585 7   -969111.994 7
  22866232.484      692548.602 6    469309.791 6
  21441835.148    -1255998.904 7   -910668.568 7
 95 10 22  0  9 30.0000000  0  6 14 15 18 29 25 22
  20317051.570    -1039917.492 7   -756816.862 8
  23569405.992      979243.064 5    716007.115 5
  23884673.969    -1869892.967 5  -1274674.439 2
  21880601.438    -1421270.076 7  -1037700.936 7
  22875233.453      739854.688 6    506171.658 6
  21426700.695    -1335533.791 7   -972643.784 7
 95 10 22  0 10  0.0000000  0  6 14 15 18 29 25 22
  20305506.188    -1100601.916 7   -804103.413 8
  23581208.445     1041246.117 5    764321.147 5
  23862468.094    -1986595.864 5  -1365611.715 2
  21863872.023    -1509187.225 7  -1106207.790 7
  22884256.938      787289.847 6    543134.102 6
  21411665.984    -1414524.280 7  -1034194.788 8
 95 10 22  0 10 30.0000000  0  6 14 15 18 29 25 22
  20294057.539    -1160763.382 7   -850982.471 8
  23593016.750     1103322.631 5    812692.440 5
  23840262.133    -2103272.580 5  -1456528.581 2
  21847158.156    -1597002.044 7  -1174634.905 7
  22893311.070      834851.255 6    580194.918 6
  21396740.117    -1492960.077 7  -1095313.568 8
 95 10 22  0 11  0.0000000  0  6 14 15 18 29 25 22
  20282705.242    -1220412.162 7   -897462.038 8
  23604849.039     1165466.624 5    861116.301 5
  23818067.711    -2219912.668 5  -1547416.914 2
  21830466.836    -1684727.621 7  -1242992.480 7
  22902384.930      882537.664 6    617353.139 6
  21381923.664    -1570833.840 7  -1155994.393 8
 95 10 22  0 11 30.0000000  0  6 14 15 18 29 25 22
  20271445.281    -1279569.439 7   -943558.605 7
  23616685.969     1227674.584 5    909590.013 4
  23795875.422    -2336515.125 4  -1638275.913 2
  21813789.398    -1772369.255 7  -1311284.637 7
  22911478.781      930352.258 6    654611.250 6
  21367212.258    -1648155.474 7  -1216244.993 8
 95 10 22  0 12  0.0000000  0  6 14 15 18 29 25 22
  20260279.781    -1338239.061 7   -989275.190 7
  23628534.516     1289945.008 5    958112.382 4
  23773690.625    -2453075.481 4  -1729102.126 3
  21797130.227    -1859922.416 7  -1379507.861 7
  22920609.422      978295.431 6    691969.559 6
  21352599.680    -1724944.037 7  -1276080.209 8
 95 10 22  0 12 29.9990000  0  6 14 15 18 29 25 22
  20249210.323    -1396424.308 7  -1034614.343 8
  23640396.276     1352270.187 5   1006677.417 5
  23751523.511    -2569600.420 4  -1819900.720 1
  21780484.823    -1947384.321 7  -1447659.972 7
  22929748.659     1026350.650 6    729415.166 6
  21338085.651    -1801202.726 7  -1335502.539 8
 95 10 22  0 12 59.9990000  0  6 14 15 18 29 25 22
  20238230.745    -1454123.636 7  -1079574.853 8
  23652270.089     1414653.809 5   1055288.019 5
  23729356.167    -2686098.025 4  -1910678.012 1
  21763859.769    -2034757.194 7  -1515742.717 7
  22938917.026     1074529.121 6    766956.817 6
  21323671.761    -1876937.619 7  -1394516.708 8
 95 10 22  0 13 29.9990000  0  6 14 15 18 29 25 22
  20227344.761    -1511320.315 7  -1124143.691 8
  23664151.745     1477097.259 5   1103945.226 4
  23707193.831    -2802562.991 4  -2001429.898 2
  21747253.987    -2122028.186 7  -1583746.074 7
  22948110.823     1122829.999 6    804593.849 6
  21309364.495    -1952137.148 7  -1453113.715 8
 95 10 22  0 13 59.9990000  0  6 14 15 18 29 25 22
  20216562.909    -1567997.076 7  -1168307.397 7
  23676038.503     1539590.157 5   1152640.971 3
  23685038.011    -2918998.683 4  -2092158.974 2
  21730663.261    -2209206.735 7  -1651677.387 8
  22957325.722     1171241.113 6    842316.785 6
  21295156.761    -2026790.630 7  -1511285.237 8
 95 10 22  0 14 29.9990000  0  6 14 15 18 29 25 22
  20205877.964    -1624142.417 7  -1212057.006 7
  23687940.292     1602128.765 5   1201372.327 4
  23662884.159    -3035386.426 5  -2182850.672 2
  21714088.761    -2296292.907 7  -1719536.722 8
  22966554.065     1219763.190 6    880126.186 6
  21281060.081    -2100875.236 7  -1569013.478 8
 95 10 22  0 14 59.9990000  0  6 14 15 18 29 25 22
  20195291.229    -1679757.484 7  -1255393.416 7
  23699847.690     1664703.777 4   1250132.037 4
  23640742.519    -3151727.028 5  -2273505.647 1
  21697533.683    -2383292.895 7  -1787328.908 7
  22975806.925     1268384.319 6    918012.768 6
  21267072.433    -2174393.296 7  -1626300.251 8
 95 10 22  0 15 29.9990000  0  6 14 15 18 29 25 22
  20184816.589    -1734822.791 7  -1298301.445 8
  23711767.628     1727325.221 5   1298927.935 3
  23618621.269    -3268012.972 5  -2364118.033 1
  21680999.683    -2470176.198 7  -1855030.160 7
  22985082.128     1317112.644 6    955982.881 6
  21253191.136    -2247329.056 7  -1683133.288 8
 95 10 22  0 15 59.9990000  0  6 14 15 18 29 25 22
  20174440.315    -1789337.406 7  -1340780.363 7
  23723693.964     1789997.971 5   1347763.807 4
  23596499.222    -3384244.228 5  -2454687.825 2
  21664493.347    -2556926.699 7  -1922627.939 8
  22994381.198     1365968.295 6    994052.196 6
  21239422.597    -2319683.721 7  -1739513.520 8
 95 10 22  0 16 29.9990000  0  6 14 15 18 29 25 22
  20164168.175    -1843323.667 7  -1382847.568 8
  23735620.073     1852707.888 4   1396628.644 4
  23574392.628    -3500452.143 5  -2545239.410 2
  21648010.753    -2643544.985 7  -1990122.695 7
  23003699.612     1414939.391 6   1032211.485 6
  21225760.605    -2391478.565 7  -1795457.538 8
 95 10 22  0 16 59.9990000  0  6 14 15 18 29 25 22
  20153995.847    -1896781.497 7  -1424503.019 7
  23747566.073     1915458.765 4   1445525.397 3
  23552272.761    -3616654.323 5  -2635786.540 3
  21631554.519    -2730022.186 7  -2057507.511 7
  23013049.081     1464033.067 6   1070466.292 6
  21212203.464    -2462717.203 7  -1850968.138 8
 95 10 22  0 17 29.9990000  0  6 14 15 18 29 25 22
  20143920.901    -1949716.590 7  -1465751.133 7
  23759518.276     1978246.406 5   1494450.799 4
  23530157.112    -3732846.253 5  -2726325.685 3
  21615123.784    -2816363.947 7  -2124786.790 8
  23022417.479     1513257.081 6   1108822.650 6
  21198754.659    -2533408.278 7  -1906052.071 8
 95 10 22  0 17 59.9990000  0  6 14 15 18 29 25 22
  20133948.534    -2002128.812 7  -1506591.820 7
  23771468.347     2041063.589 5   1543399.207 4
  23508050.862    -3849021.658 5  -2816851.947 3
  21598716.073    -2902600.536 7  -2191984.129 7
  23031797.612     1562602.836 6   1147273.873 6
  21185401.253    -2603551.685 7  -1960709.249 8
 95 10 22  0 18 29.9990000  0  6 14 15 18 29 25 22
  20124075.729    -2054005.133 7  -1547014.922 7
  23783426.151     2103904.071 5   1592365.793 4
  23485952.511    -3965166.535 5  -2907354.431 4
  21582320.370    -2988740.384 7  -2259106.062 8
  23041201.979     1612040.484 6   1185796.702 6
  21172162.729    -2673143.268 7  -2014936.437 8
 95 10 22  0 18 59.9990000  0  6 14 15 18 29 25 22
  20114303.855    -2105364.146 7  -1587034.928 7
  23795385.026     2166748.474 5   1641335.410 5
  23463858.745    -4081277.726 5  -2997830.655 5
  21565944.761    -3074797.373 7  -2326163.436 8
  23050628.323     1661552.374 6   1224377.396 6
  21159020.972    -2742193.881 7  -2068742.085 8
 95 10 22  0 19 29.9990000  0  6 14 15 18 29 25 22
  20104633.120    -2156187.772 7  -1626637.748 7
  23807347.878     2229609.734 5   1690318.189 4
  23441766.104    -4197329.727 5  -3088260.740 4
  21549589.300    -3160755.494 7  -2393143.768 7
  23060064.339     1711143.300 6   1263019.671 6
  21145987.526    -2810676.938 7  -2122105.484 8
 95 10 22  0 19 59.9990000  0  6 14 15 18 29 25 22
  20095063.409    -2206470.553 7  -1665819.138 7
  23819315.784     2292488.635 5   1739314.702 5
  23419699.394    -4313338.343 5  -3178657.052 3
  21533249.026    -3246607.059 7  -2460041.069 8
  23069510.237     1760807.718 6   1301719.213 6
  21133068.105    -2878583.629 7  -2175019.769 8
 95 10 22  0 20 29.9990000  0  6 14 15 18 29 25 22
  20085594.964    -2256232.205 7  -1704594.434 7
  23831280.698     2355377.824 5   1788319.229 5
  23397631.698    -4429312.036 5  -3269026.135 4
  21516937.331    -3332338.159 7  -2526844.506 8
  23078978.511     1810547.862 6   1340477.765 5
  21120253.128    -2945920.603 7  -2227490.118 8
 95 10 22  0 20 59.9990000  0  6 14 15 18 29 25 22
  20076220.979    -2305483.528 7  -1742972.091 7
  23843249.612     2418270.461 5   1837326.458 5
  23375564.448    -4545263.659 5  -3359378.009 4
  21500643.511    -3417958.400 7  -2593561.552 8
  23088474.065     1860380.853 6   1379308.661 6
  21107548.276    -3012688.298 7  -2279516.874 8
 95 10 22  0 21 29.9990000  0  6 14 15 18 29 25 22
  20066952.519    -2354202.500 7  -1780934.922 7
  23855220.651     2481166.877 5   1886336.603 5
  23353500.065    -4661207.724 5  -3449724.003 5
  21484367.128    -3503479.636 7  -2660201.457 8
  23097961.261     1910310.855 6   1418215.153 6
  21094950.573    -3078884.055 7  -2331097.964 8
 95 10 22  0 21 59.9990000  0  6 14 15 18 29 25 22
  20057784.128    -2402383.277 7  -1818478.385 7
  23867187.120     2544065.083 5   1935348.177 5
  23331444.190    -4777135.979 5  -3540057.664 4
  21468114.815    -3588898.537 7  -2726761.625 8
  23107481.284     1960345.946 6   1457203.512 6
  21082462.284    -3144508.995 7  -2382234.264 8
 95 10 22  0 22 29.9990000  0  6 14 15 18 29 25 22
  20048714.612    -2450019.216 7  -1855597.297 7
  23879156.675     2606963.799 5   1984360.117 5
  23309390.222    -4893030.845 5  -3630365.318 4
  21451883.222    -3674197.078 7  -2793228.003 8
  23117025.323     2010484.042 6   1496272.143 6
  21070090.229    -3209544.786 7  -2432911.484 8
 95 10 22  0 22 59.9990000  0  6 14 15 18 29 25 22
  20039757.659    -2497098.941 7  -1892282.793 7
  23891125.433     2669857.495 5   2033368.153 5
  23287336.815    -5008899.702 5  -3720652.692 4
  21435675.815    -3759383.518 7  -2859607.034 8
  23126579.347     2060708.208 5   1535407.838 6
  21057822.190    -3273986.408 7  -2483125.716 8
 95 10 22  0 23 29.9990000  0  6 14 15 18 29 25 22
  20030905.550    -2543627.871 7  -1928539.099 7
  23903090.323     2732739.626 5   2082367.177 3
  23265293.589    -5124740.784 5  -3810918.424 3
  21419487.573    -3844440.354 7  -2925885.079 8
  23136152.815     2111003.401 6   1574598.866 6
  21045672.003    -3337834.502 7  -2532877.460 8
 95 10 22  0 23 59.9990000  0  6 14 15 18 29 25 22
  20022155.042    -2589606.596 7  -1964366.680 7
  23915057.519     2795615.025 4   2131360.968 4
  23243259.300    -5240520.668 5  -3901136.460 5
  21403333.362    -3929336.900 7  -2992038.214 8
  23145738.394     2161368.350 6   1613844.270 5
  21033639.604    -3401076.893 7  -2582157.228 8
 95 10 22  0 24 29.9990000  0  6 14 15 18 29 25 22
  20013512.229    -2635022.324 7  -1999755.558 7
  23927018.659     2858483.577 4   2180349.405 4
  23221240.956    -5356239.597 5  -3991307.004 4
  21387208.644    -4014071.786 7  -3058065.391 8
  23155334.729     2211809.664 6   1653149.176 6
  21021721.878    -3463705.826 7  -2630958.976 8
 95 10 22  0 24 59.9990000  0  6 14 15 18 29 25 22
  20004975.058    -2679885.734 7  -2034714.064 7
  23938979.776     2921327.315 4   2229318.522 4
  23199229.073    -5471909.230 5  -4081439.124 4
  21371102.995    -4098693.286 7  -3124004.220 8
  23164956.323     2262324.266 6   1692511.180 6
  21009918.683    -3525748.975 7  -2679304.268 8
 95 10 22  0 25 29.9990000  0  6 14 15 18 29 25 22
  19996545.925    -2724179.400 7  -2069228.604 7
  23950937.050     2984162.458 4   2278280.904 2
  23177232.151    -5587507.057 5  -4171515.298 4
  21355026.667    -4183182.762 7  -3189840.166 8
  23174576.776     2312938.078 5   1731950.494 6
  20998223.925    -3587199.717 7  -2727187.943 8
 95 10 22  0 25 59.9990000  0  6 14 15 18 29 25 22
  19988222.073    -2767922.803 7  -2103314.373 7
  23962884.151     3046964.696 3   2327217.690 3
  23155240.651    -5703061.137 5  -4261557.393 4
  21338968.878    -4267583.651 7  -3255607.087 8
  23184231.003     2363635.282 6   1771454.793 6
  20986634.714    -3648077.247 7  -2774624.966 8
 95 10 22  0 26 29.9990000  0  6 14 15 18 29 25 22
  19980005.550    -2811108.260 7  -2136965.380 7
  23974833.519     3109735.664 3   2376130.102 5
  23133259.159    -5818587.203 5  -4351577.642 4
  21322917.558    -4351914.360 7  -3321319.326 8
  23193900.511     2414426.831 6   1811032.608 5
  20975158.776    -3708384.760 7  -2821617.807 8
 95 10 22  0 26 59.9990000  0  6 14 15 18 29 25 22
  19971893.370    -2853746.858 7  -2170190.262 7
  23986772.440     3172475.355 3   2425018.115 3
  23111278.933    -5934090.903 5  -4441580.479 4
  21306882.909    -4436175.819 7  -3386977.598 8
  23203565.370     2465295.357 5   1850670.413 6
  20963790.198    -3768125.529 7  -2868169.039 8
 95 10 22  0 27 29.9990000  0  6 14 15 18 29 25 22
  19963881.440    -2895841.057 7  -2202990.937 7
  23998699.855     3235183.650 3   2473881.721 2
  23089300.347    -6049583.394 5  -4531574.567 2
  21290867.354    -4520342.092 7  -3452561.695 8
  23213265.581     2516231.278 6   1890360.726 5
  20952531.745    -3827291.916 7  -2914272.695 8
 95 10 22  0 27 59.9990000  0  6 14 15 18 29 25 22
  19955977.042    -2937381.536 7  -2235360.143 7
  24010634.534     3297863.209 3   2522722.884 1
  23067327.526    -6165057.677 5  -4621554.489 4
  21274870.511    -4604408.033 7  -3518067.617 8
  23222978.362     2567234.464 6   1930103.464 6
  20941387.878    -3885858.457 7  -2959908.944 8
 95 10 22  0 28 29.9990000  0  6 14 15 18 29 25 22
  19948176.183    -2978379.849 7  -2267306.879 7
  24022550.675     3360502.114 3   2571532.364 1
  23045353.831    -6280527.652 5  -4711531.041 4
  21258893.284    -4688370.018 7  -3583492.533 8
  23232696.394     2618284.897 6   1969883.026 6
  20930354.565    -3943835.269 7  -3005085.657 8
 95 10 22  0 28 59.9990000  0  6 14 15 18 29 25 22
  19940476.644    -3018837.776 7  -2298832.539 7
  24034463.956     3423104.051 3   2620313.071 2
  23023384.237    -6395974.765 5  -4801489.791 3
  21242940.151    -4772203.229 7  -3648817.102 8
  23242409.065     2669383.793 6   2009700.342 5
  20919440.315    -4001192.406 7  -3049779.503 8
 95 10 22  0 29 29.9990000  0  6 14 15 18 29 25 22
  19932880.144    -3058758.746 7  -2329939.785 7
  24046367.698     3485651.527 4   2669051.299 1
  23001422.433    -6511395.459 5  -4891427.967 3
  21227011.784    -4855909.695 7  -3714042.908 8
  23252148.784     2720537.816 6   2049560.610 5
  20908639.550    -4057938.645 7  -3093997.335 8
 95 10 22  0 29 59.9990000  0  6 14 15 18 29 25 22
  19925386.839    -3098134.397 7  -2360622.106 7
  24058257.612     3548149.267 4   2717750.821 2
  22979468.823    -6626772.863 5  -4981332.402 4
  21211106.675    -4939485.209 7  -3779166.670 8
  23261889.081     2771758.035 5   2089472.464 6
  20897959.315    -4114071.216 7  -3137736.979 8
 95 10 22  0 30 29.9990000  0  6 14 15 18 29 25 22
  19917996.339    -3136963.774 7  -2390878.766 7
  24070138.151     3610593.620 3   2766408.759 2
  22957521.565    -6742100.681 5  -5071198.182 3
  21195229.894    -5022931.196 7  -3844189.503 8
  23271647.581     2823034.100 6   2129427.820 5
  20887392.151    -4169606.074 7  -3181010.862 8
 95 10 22  0 30 59.9990000  0  6 14 15 18 29 25 22
  19910711.206    -3175239.379 7  -2420703.909 7
  24082013.386     3672984.258 3   2815024.786 2
  22935586.128    -6857356.372 5  -5161007.802 4
  21179373.854    -5106243.431 7  -3909108.125 8
  23281408.815     2874365.838 6   2169426.594 5
  20876940.144    -4224546.045 7  -3223821.216 8
 95 10 22  0 31 29.9990000  0  6 14 15 18 29 25 22
  19903535.229    -3212951.958 7  -2450090.332 7
  24093877.253     3735314.861 4   2863594.068 2
  22913671.479    -6972547.788 5  -5250767.297 3
  21163544.526    -5189424.797 7  -3973924.750 8
  23291196.011     2925747.371 6   2209464.134 5
  20866592.245    -4278918.571 7  -3266189.399 8
 95 10 22  0 31 59.9990000  0  6 14 15 18 29 25 22
  19896467.050    -3250106.615 7  -2479042.018 7
  24105721.612     3797581.800 4   2912113.725 2
  22891758.034    -7087690.059 5  -5340488.532 4
  21147740.112    -5272482.984 7  -4038645.399 8
  23300973.901     2977148.092 5   2249516.649 5
  20856351.979    -4332726.144 7  -3308117.355 8
 95 10 22  0 32 29.9990000  0  6 14 15 18 29 25 22
  19889505.456    -3286698.361 7  -2507555.064 7
  24117557.745     3859787.278 4   2960585.493 4
  22869857.222    -7202781.514 5  -5430170.145 5
  21131958.964    -5355409.730 7  -4103263.627 8
  23310760.683     3028564.145 5   2289581.100 5
  20846220.105    -4385954.867 7  -3349594.265 8
 95 10 22  0 32 59.9990000  0  6 14 15 18 29 25 22
  19882649.331    -3322717.453 7  -2535621.895 7
  24129386.808     3921936.162 4   3009013.142 3
  22847968.315    -7317823.696 5  -5519813.382 5
  21116206.667    -5438192.793 7  -4167769.893 8
  23320556.245     3080028.208 5   2329682.971 5
  20836204.151    -4438594.235 7  -3390611.934 8
 95 10 22  0 33 29.9980000  0  6 14 15 18 29 25 22
  19875901.920    -3358169.614 7  -2563246.952 7
  24141198.592     3984014.160 4   3057385.577 2
  22826078.115    -7432833.994 5  -5609431.755 5
  21100475.131    -5520852.906 7  -4232180.351 8
  23330350.092     3131537.460 5   2369820.054 5
  20826302.990    -4490645.613 7  -3431171.432 8
 95 10 22  0 33 59.9980000  0  6 14 15 18 29 25 22
  19869260.607    -3393074.184 7  -2590445.321 7
  24152997.521     4046016.858 4   3105699.352 4
  22804198.607    -7547821.811 5  -5699032.622 5
  21084766.873    -5603409.120 7  -4296509.854 8
  23340165.178     3183096.043 5   2409995.569 5
  20816510.014    -4542103.774 7  -3471268.679 8
 95 10 22  0 34 29.9980000  0  6 14 15 18 29 25 22
  19862725.076    -3427427.523 7  -2617214.158 7
  24164783.732     4107940.401 3   3153951.427 4
  22782324.498    -7662771.603 5  -5788603.860 5
  21069076.022    -5685856.201 7  -4360754.315 8
  23349995.365     3234729.801 5   2450229.675 5
  20806830.264    -4592960.179 7  -3510897.029 8
 95 10 22  0 34 59.9980000  0  6 14 15 18 29 25 22
  19856293.350    -3461220.563 7  -2643546.398 7
  24176554.904     4169787.510 3   3202143.930 2
  22760457.178    -7777670.383 5  -5878135.334 5
  21053410.686    -5768186.324 7  -4424907.639 8
  23359827.256     3286456.034 5   2490535.837 5
  20797267.084    -4643212.069 7  -3550054.330 8
 95 10 22  0 35 29.9980000  0  6 14 15 18 29 25 22
  19849967.272    -3494454.500 7  -2669442.974 7
  24188305.396     4231562.126 3   3250279.950 3
  22738601.771    -7892510.789 5  -5967621.320 5
  21037769.357    -5850381.026 7  -4488955.443 8
  23369683.482     3338258.535 5   2530901.431 4
  20787824.646    -4692852.153 7  -3588734.899 8
 95 10 22  0 35 59.9980000  0  6 14 15 18 29 25 22
  19843747.881    -3527148.822 7  -2694919.070 7
  24200051.459     4293252.068 3   3298349.980 4
  22716760.139    -8007305.280 5  -6057071.546 5
  21022155.865    -5932432.412 7  -4552891.571 8
  23379568.912     3390118.116 5   2571311.493 5
  20778487.865    -4741895.363 7  -3626950.376 8
 95 10 22  0 36 29.9980000  0  6 14 15 18 29 25 22
  19837627.350    -3559305.355 7  -2719976.110 7
  24211766.701     4354853.024 3   3346350.689 3
  22694922.475    -8122061.050 5  -6146491.584 5
  21006568.756    -6014334.896 7  -4616711.676 8
  23389438.818     3442023.321 5   2611757.110 5
  20769271.021    -4790351.800 7  -3664708.615 8
 95 10 22  0 36 59.9980000  0  6 14 15 18 29 25 22
  19831611.037    -3590925.451 7  -2744615.145 7
  24223474.256     4416359.706 2   3394277.930 3
  22673091.857    -8236782.672 5  -6235885.009 5
  20991011.803    -6096093.110 7  -4680419.363 9
  23399316.631     3493947.827 5   2652217.763 5
  20760158.654    -4838229.945 7  -3702016.243 8
 95 10 22  0 37 29.9980000  0  6 14 15 18 29 25 22
  19825694.514    -3622009.393 7  -2768836.395 7
  24235155.514     4477772.866 2   3442132.342 4
  22651268.029    -8351472.092 5  -6325253.346 5
  20975480.225    -6177714.830 7  -4744020.690 9
  23409206.772     3545878.848 5   2692683.480 5
  20751160.092    -4885514.222 7  -3738861.125 8
 95 10 22  0 37 59.9980000  0  6 14 15 18 29 25 22
  19819886.396    -3652538.396 7  -2792625.235 7
  24246824.154     4539098.549 2   3489918.533 3
  22629450.131    -8466109.248 5  -6414580.974 5
  20959969.857    -6259216.268 7  -4807528.294 8
  23419096.287     3597830.094 5   2733164.971 5
  20742281.389    -4932171.885 7  -3775217.727 8
 95 10 22  0 38 29.9980000  0  6 14 15 18 29 25 22
  19814186.092    -3682485.598 7  -2815960.718 7
  24258480.881     4600338.936 2   3537638.256 3
  22607652.920    -8580674.107 5  -6503852.246 5
  20944482.850    -6340597.138 7  -4870941.947 9
  23428982.170     3649799.720 5   2773660.783 5
  20733527.311    -4978181.888 7  -3811069.663 8
 95 10 22  0 38 59.9980000  0  5 14 18 29 25 22
  19808600.170    -3711857.319 7  -2838847.780 7
  22585858.912    -8695179.473 5  -6593077.174 5
  20929016.936    -6421879.992 7  -4934279.230 9
  23438859.459     3701771.274 5   2814158.090 5
  20724891.295    -5023546.096 7  -3846418.385 8
 95 10 22  0 39 29.9980000  0  6 14 15 18 29 25 22
  19803116.795    -3740650.852 7  -2861284.299 8
  24281736.889          -0.92213
  22564081.412    -8809627.266 5  -6682257.247 5
  20913569.740    -6503048.330 7  -4997527.273 9
  23448760.615     3753760.229 5   2854668.966 5
  20716387.350    -5068257.350 7  -3881258.308 8
 95 10 22  0 39 59.9980000  0  6 14 15 18 29 25 22
  19797749.037    -3768864.018 7  -2883268.587 8
  24293324.232       60919.398 2        -0.01211
  22542315.068    -8924016.458 5  -6771391.650 5
  20898149.232    -6584085.047 7  -5060672.760 9
  23458653.725     3805774.404 5   2895199.489 5
  20707999.193    -5112333.006 7  -3915602.960 8
 95 10 22  0 40 29.9980000  0  6 14 15 18 29 25 22
  19792492.295    -3796499.576 7  -2904802.787 7
  24304894.662      121734.573 3     47388.434 1
  22520553.897    -9038355.516 5  -6860487.000 5
  20882759.139    -6664964.956 7  -5123696.053 9
  23468558.428     3857824.258 5   2935757.822 5
  20699725.350    -5155792.429 7  -3949467.434 8
 95 10 22  0 40 59.9980000  0  6 14 15 18 29 25 22
  19787339.037    -3823575.119 7  -2925900.618 7
  24316447.350      182440.595 3     94691.795 1
  22498804.615    -9152660.148 6  -6949555.509 5
  20867397.647    -6745689.850 7  -5186598.558 9
  23478479.568     3909914.632 5   2976347.735 5
  20691569.092    -5198660.075 7  -3982870.781 8
 95 10 22  0 41 29.9980000  0  7 14 15 18 29 25 22 19
  19782289.404    -3850099.516 7  -2946568.980 8
  24327978.811      243031.703 4    141905.628 1
  22477060.107    -9266932.993 6  -7038599.258 5
  20852066.615    -6826258.783 7  -5249379.537 9
  23488395.342     3962041.031 5   3016965.705 5
  20683523.303    -5240954.962 7  -4015827.837 8
  24273417.412          -0.80513
 95 10 22  0 41 59.9980000  0  7 14 15 18 29 25 22 19
  19777348.662    -3876064.219 7  -2966801.221 8
  24339486.514      303505.462 3    189028.061 1
  22455325.350    -9381156.804 6  -7127604.803 5
  20836761.193    -6906685.413 7  -5312049.625 9
  23498326.107     4014198.972 5   3057608.268 5
  20675584.084    -5282673.209 7  -4048335.541 8
  24249089.068     -127879.782 3
 95 10 22  0 42 29.9980000  0  6 14 18 29 25 22 19
  19772515.537    -3901472.150 7  -2986599.613 8
  22433597.928    -9495333.906 6  -7216573.937 5
  20821479.943    -6986987.600 7  -5374622.746 9
  23508248.146     4066369.740 5   3098260.830 5
  20667753.615    -5323811.296 7  -4080391.183 8
  24224774.514     -255625.218 3
 95 10 22  0 42 59.9980000  0  7 14  4 18 29 25 22 19
  19767791.436    -3926302.547 7  -3005947.975 8
  24327580.967          -0.14414
  22411882.646    -9609442.206 6  -7305489.462 5
  20806223.615    -7067160.128 7  -5437094.833 9
  23518175.506     4118557.131 5   3138926.325 5
  20660038.959    -5364349.211 7  -4111979.157 8
  24200496.975     -383226.884 2        -0.47411
 95 10 22  0 43 29.9980000  0  7 14  4 18 29 25 22 19
  19763178.615    -3950539.152 7  -3024833.642 8
  24315879.506      -61510.685 4
  22390184.951    -9723467.731 6  -7394340.481 5
  20790991.084    -7147204.964 7  -5499467.416 9
  23528115.631     4170768.279 5   3179610.356 5
  20652446.139    -5404263.114 7  -4143080.874 8
  24176238.467     -510689.200 2    -99321.687 2
 95 10 22  0 43 59.9980000  0  6  4 18 29 25 22 19
  24304274.998     -122488.354 4
  22368499.482    -9837413.760 6  -7483129.560 5
  20775786.232    -7227116.450 7  -5561736.090 9
  23538046.061     4223000.708 5   3220310.954 5
  20644975.350    -5443536.653 7  -4173683.636 8
  24152011.264     -638009.617 2   -198532.316 1
 95 10 22  0 44 29.9980000  0  7 14  4 18 29 25 22 19
  19754289.146          -0.78317
  24292762.709     -182949.202 3
  22346827.334    -9951302.393 6  -7571873.903 5
  20760605.225    -7306883.224 7  -5623892.001 9
  23547998.365     4275255.140 5   3261028.688 4
  20637621.842    -5482178.846 7  -4203794.423 8
  24127801.615     -765193.655 1   -297636.669 2
 95 10 22  0 44 59.9980000  0  6 14  4 18 29 25 22
  19750012.514      -22479.263 7        -0.16618
  24281354.686     -242905.141 3
  22325167.568   -10065129.547 6  -7660570.344 5
  20745454.998    -7386501.359 7  -5685932.093 9
  23557948.826     4327548.383 5   3301776.665 5
  20630387.748    -5520193.427 7  -4233416.158 8
 95 10 22  0 45 29.9980000  0  7 14  4 18 29 25 22 19
  19745841.514      -44398.576 7    -17080.147 8
  24270038.881     -302384.571 3        -0.44111
  22303516.725   -10178906.563 6  -7749227.709 5
  20730331.201    -7465977.582 7  -5747861.599 9
  23567902.029     4379858.999 5   3342538.184 4
  20623268.779    -5557588.671 7  -4262555.292 8
  24079490.850     -126895.503 2
 95 10 22  0 45 59.9980000  0  7 14  4 18 29 25 22 19
  19741773.397      -65778.161 7    -33739.563 8
  24258808.576     -361387.095 3    -45976.386 1
  22281873.295   -10292639.510 6  -7837850.750 5
  20715233.818    -7545313.418 7  -5809681.715 9
  23577852.232     4432172.982 4   3383302.325 3
  20616268.326    -5594381.165 7  -4291224.755 8
  24055363.826          -0.45812
 95 10 22  0 46 29.9980000  0  7 14  4 18 29 25 22 19
  19737812.678      -86591.327 7    -49957.615 8
  24247680.967     -419892.712 3    -91565.199 1
  22260245.092   -10406298.729 6  -7926416.330 5
  20700164.490    -7624505.221 7  -5871389.598 9
  23587821.100     4484508.347 5   3424083.128 4
  20609382.779    -5630566.877 7  -4319421.399 8
  24031276.990     -126593.048 3        -0.27313
 95 10 22  0 46 59.9980000  0  7 14  4 18 29 25 22 19
  19733959.021     -106838.228 7    -65734.421 8
  24236638.350     -477906.920 3
  22238630.607   -10519886.622 6  -8014926.340 5
  20685117.771    -7703571.022 7  -5932999.299 9
  23597780.607     4536840.719 5   3464861.606 2
  20602610.943    -5666151.692 7  -4347149.815 8
  24007219.521     -253018.888 3    -98513.852 2
 95 10 22  0 47 29.9980000  0  7 14  4 18 29 25 22 19
  19730215.717     -126515.784 7    -81067.577 8
  24225691.857     -535435.578 3
  22217026.912   -10633412.021 6  -8103387.659 5
  20670098.662    -7782502.784 7  -5994504.557 9
  23607728.115     4589157.046 5   3505627.602 2
  20595953.756    -5701135.975 7  -4374410.277 8
  23983192.373     -379301.062 3   -196915.483 2
 95 10 22  0 47 59.9980000  0  7 14  4 18 29 25 22 19
  19726584.662     -145591.744 7    -95931.958 8
  24214841.498     -592448.837 3
  22195442.084   -10746853.381 6  -8191783.492 5
  20655109.639    -7861273.734 7  -6055884.496 9
  23617696.521     4641497.541 5   3546412.407 4
  20589414.014    -5735496.350 7  -4401184.586 8
  23959185.100     -505419.375 3   -295189.413 4
 95 10 22  0 48 29.9980000  0  7 14  4 18 29 25 22 19
  19723069.607     -164065.890 7   -110327.397 8
  24204087.615     -648960.909 3        -0.33511
  22173868.764   -10860212.497 6  -8280115.237 5
  20640151.959    -7939874.714 7  -6117131.998 9
  23627655.811     4693861.946 5   3587215.856 4
  20582994.936    -5769233.942 7  -4427473.601 8
  23935218.342     -631370.300 3   -393332.923 3
 95 10 22  0 48 59.9980000  0  7 14  4 18 29 25 22 19
  19719668.537     -181948.799 7   -124262.131 8
  24193429.029     -704973.719 3    -43646.663 1
  22152312.475   -10973486.351 6  -8368380.550 5
  20625229.482    -8018283.778 7  -6178229.965 9
  23637623.209     4746253.178 5   3628040.208 2
  20576695.514    -5802333.486 7  -4453265.441 8
  23911282.795     -757171.059 3   -491359.465 2
 95 10 22  0 49 29.9980000  0  7 14  4 18 29 25 22 19
  19716378.279     -199247.020 7   -137741.264 8
  24182861.232     -760489.554 3    -86905.750 2
  22130774.686   -11086679.342 6  -8456582.861 5
  20610347.287    -8096492.735 7  -6239171.994 9
  23647604.787     4798674.151 5   3668887.734 4
  20570517.217    -5834791.892 7  -4478557.695 8
  23887367.873     -882820.484 3   -589268.060 3
 95 10 22  0 49 59.9980000  0  7 14  4 18 29 25 22 19
  19713194.967     -215971.641 7   -150773.437 8
  24172397.787     -815501.330 3   -129772.079 1
  22109248.670   -11199784.811 6  -8544716.972 5
  20595500.264    -8174516.982 7  -6299970.090 9
  23657576.100     4851114.651 5   3709750.491 4
  20564460.771    -5866614.424 7  -4503354.463 8
  23863492.139    -1008301.416 4   -687045.387 2
 95 10 22  0 50 29.9980000  0  7 14  4 18 29 25 22 19
  19710113.365     -232155.002 7   -163383.846 8
  24162017.490     -870036.645 3   -172267.059 1
  22087737.904   -11312826.441 6  -8632801.340 5
  20580682.850    -8252384.201 7  -6360645.831 9
  23667550.842     4903532.392 5   3750595.495 5
  20558523.021    -5897834.136 7  -4527681.504 8
  23839640.420    -1133637.210 4   -784709.563 2
 95 10 22  0 50 59.9980000  0  7 14  4 18 29 25 22 19
  19707136.600     -247797.569 7   -175572.862 8
  24151736.068     -924085.823 3   -214383.318 1
  22066237.295   -11425819.295 6  -8720847.701 5
  20565894.529    -8330102.586 7  -6421205.598 9
  23677517.232     4955921.217 5   3791417.975 5
  20552696.451    -5928452.889 7  -4551540.257 8
  23815816.529    -1258837.033 3   -882267.868 3
 95 10 22  0 51 29.9980000  0  7 14  4 18 29 25 22 19
  19704264.771     -262903.155 7   -187343.449 8
  24141541.514     -977641.687 3   -256115.147 2
  22044741.662   -11538773.620 6  -8808864.038 5
  20551131.170    -8407684.519 7  -6481659.037 9
  23687485.772     5008276.177 5   3832214.057 5
  20546979.225    -5958483.397 7  -4574940.643 8
  23792023.600    -1383887.764 5   -979709.974 1
 95 10 22  0 51 59.9980000  0  7 14  4 18 29 25 22 19
  19701492.201     -277460.776 7   -198687.048 8
  24131443.084    -1030686.354 3   -297448.651 1
  22023260.787   -11651661.953 6  -8896828.958 5
  20536393.240    -8485129.628 7  -6542005.861 9
  23697446.084     5060612.370 5   3872995.526 5
  20541377.436    -5987921.440 7  -4597879.373 8
  23768254.225    -1508782.225 3
 95 10 22  0 52 29.9980000  0  7 14  4 18 29 25 22 19
  19698827.443     -291458.166 7   -209594.109 8
  24121449.889    -1083212.053 3   -338377.762 1
  22001788.623   -11764490.697 6  -8984747.438 5
  20521684.834    -8562423.362 7  -6602234.729 9
  23707401.889     5112939.581 5   3913769.981 5
  20535891.639    -6016762.936 7  -4620353.256 8
  23744514.592    -1633517.286 4
 95 10 22  0 52 59.9980000  0  7 14  4 18 29 25 22 19
  19696269.912     -304914.610 7   -220079.651 8
  24111547.537    -1135248.317 3   -378925.469 2
  21980325.147   -11877291.205 6  -9072643.921 5
  20506998.561    -8639596.083 7  -6662369.305 9
  23717351.662     5165239.521 5   3954523.225 5
  20530509.264    -6045024.657 7  -4642375.370 8
  23720804.256    -1758125.117 3        -0.43411
 95 10 22  0 53 29.9980000  0  7 14  4 18 29 25 22 19
  19693812.670     -317812.595 7   -230130.030 8
  24101735.576    -1186789.546 2   -419087.441 2
  21958872.506   -11990025.274 6  -9160488.643 5
  20492339.178    -8716632.780 7  -6722397.891 9
  23727304.475     5217525.350 5   3995265.440 5
  20525248.787    -6072691.882 7  -4663934.236 8
  23697122.803    -1882581.566 3    -96979.474 2
 95 10 22  0 53 59.9970000  0  7 14  4 18 29 25 22 19
  19691469.501     -330136.616 7   -239733.166 8
  24092028.853    -1237839.875 3   -458866.887 1
  21937437.634   -12102681.761 6  -9248272.904 5
  20477707.532    -8793524.121 7  -6782313.206 9
  23737251.892     5269803.819 5   4036001.925 5
  20520096.196    -6099751.998 7  -4685020.032 8
  23673457.157    -2006878.794 2   -193834.398 1
 95 10 22  0 54 29.9970000  0  7 14  4 18 29 25 22 19
  19689228.368     -341897.829 7   -248897.749 8
  24082405.306    -1288414.983 3   -498276.037 2
  21916005.532   -12215287.403 6  -9336017.543 5
  20463103.829    -8870267.176 7  -6842112.978 9
  23747205.321     5322076.820 5   4076734.165 5
  20515065.876    -6126198.645 7  -4705627.799 8
  23649847.610    -2131033.233 2
 95 10 22  0 54 59.9970000  0  7 14  4 18 29 25 22 19
  19687099.478     -353096.333 7   -257623.849 8
  24072873.595    -1338519.654 3   -537318.673 1
  21894591.173   -12327825.027 6  -9423709.178 5
  20448527.884    -8946858.046 7  -6901794.166 9
  23757144.829     5374348.878 4   4117465.632 5
  20510152.759    -6152013.302 7  -4725743.101 8
  23626251.493    -2255033.915 4
 95 10 22  0 55 29.9970000  0  7 14  4 18 29 25 22 19
  19685076.415     -363729.887 7   -265909.735 8
  24063430.626    -1388138.972 3   -575983.023 1
  21873193.485   -12440274.551 6  -9511332.172 5
  20433984.938    -9023286.734 7  -6961348.977 9
  23767098.853     5426626.313 5   4158201.307 5
  20505363.556    -6177187.458 7  -4745359.317 8
  23602683.360    -2378862.571 4
 95 10 22  0 55 59.9970000  0  7 14  4 18 29 25 22 19
  19683159.907     -373810.050 7   -273764.409 8
  24054079.946    -1437279.049 3   -614274.034 2
  21851807.204   -12552651.832 6  -9598898.871 6
  20419470.751    -9099556.613 7  -7020780.042 9
  23777047.548     5478906.632 5   4198939.216 4
  20500690.220    -6201729.352 7  -4764482.857 8
  23579153.189    -2502529.598 4
 95 10 22  0 56 29.9970000  0  7 14  4 18 29 25 22 19
  19681347.603     -383316.967 7   -281172.400 8
  24044825.126    -1485916.664 3   -652173.436 1
  21830443.329   -12664921.657 6  -9686381.831 5
  20404990.642    -9175644.702 7  -7080069.449 9
  23786997.689     5531204.533 4   4239690.837 5
  20496144.657    -6225634.251 7  -4783110.045 8
  23555650.181    -2626027.173 3
 95 10 22  0 56 59.9970000  0  7 14  4 18 29 25 22 19
  19679649.056     -392244.709 7   -288129.078 8
  24035660.462    -1534059.786 2   -689687.566 2
  21809100.767   -12777075.387 6  -9773774.323 6
  20390545.884    -9251563.210 7  -7139226.722 9
  23796946.884     5583500.927 4   4280441.273 4
  20491711.142    -6248925.839 7  -4801259.324 8
  23532180.642    -2749357.127 4        -0.15613
 95 10 22  0 57 29.9970000  0  7 14  4 18 29 25 22 19
  19678063.196     -400593.743 7   -294634.825 8
  24026586.462    -1581713.055 3   -726819.955 1
  21787779.384   -12889119.456 6  -9861081.374 5
  20376130.110    -9327309.411 7  -7198249.723 9
  23806898.712     5635786.782 5   4321183.518 3
  20487387.923    -6271631.740 7  -4818952.223 8
  23508740.017    -2872534.322 3    -95982.343 2
 95 10 22  0 57 59.9970000  0  7 14  4 18 29 25 22 19
  19676581.149     -408369.497 7   -300693.851 8
  24017616.509    -1628893.534 3   -763583.935 1
  21766474.165   -13001075.844 6  -9948320.101 5
  20361748.368    -9402888.771 7  -7257142.717 9
  23816846.907     5688048.654 5   4361907.096 2
  20483177.282    -6293784.201 7  -4836213.874 8
  23485323.993    -2995580.377 4   -191862.319 2
 95 10 22  0 58 29.9970000  0  7 14  4 18 29 25 22 19
  19675212.267     -415559.689 7   -306296.596 8
  24008726.329    -1675585.935 3   -799967.624 1
  21745187.853   -13112939.283 6 -10035486.399 5
  20347399.673    -9478295.727 7  -7315901.376 9
  23826784.837     5740287.092 3   4402612.342 2
  20479067.212    -6315370.266 7  -4853034.170 8
  23461940.251    -3118482.676 4   -287630.253 3
 95 10 22  0 58 59.9970000  0  7 14  4 18 29 25 22 19
  19673956.954     -422179.532 7   -311454.921 8
  23999931.571    -1721784.018 3   -835966.107 1
  21723915.720   -13224725.705 6 -10122592.680 5
  20333082.392    -9553529.763 7  -7374525.290 9
  23836715.907     5792506.152 4   4443302.570 3
  20475067.321    -6336376.337 7  -4869402.528 8
  23438579.103    -3241216.299 3   -383266.759 2
 95 10 22  0 59 29.9970000  0  7 14  4 18 29 25 22 19
  19672798.876     -428239.926 7   -316177.303 8
  23991237.243    -1767474.862 3   -871569.337 1
  21702657.899   -13336441.439 6 -10209643.883 5
  20318800.571    -9628582.393 7  -7433007.840 9
  23846657.235     5844716.413 5   4483985.908 2
  20471187.462    -6356787.479 7  -4885307.307 8
  23415262.688    -3363775.811 3   -478767.620 3
 95 10 22  0 59 59.9970000  0  7 14  4 18 29 25 22 19
  19671748.103     -433761.688 7   -320479.979 9
  23982642.189    -1812674.651 3   -906789.948 1
  21681411.110   -13448101.424 6 -10296651.651 5
  20304549.462    -9703472.065 7  -7491363.420 9
  23856589.681     5896904.500 5   4524651.965 3
  20467416.267    -6376596.354 7  -4900742.784 8
  23391976.884    -3486163.606 5   -574134.646 3
 95 10 22  1  0 29.9970000  0  7 14  4 18 29 25 22 19
  19670801.649     -438756.781 7   -324372.258 9
  23974132.548    -1857391.642 3   -941634.376 1
  21660169.962   -13559714.012 6 -10383622.480 5
  20290328.978    -9778207.691 7  -7549598.955 9
  23866513.751     5949065.156 5
  20463762.845    -6395781.259 7  -4915692.059 8
  23368716.415    -3608375.430 5   -669364.578 4
 95 10 22  1  0 59.9970000  0  6 14  4 18 29 22 19
  19669952.532     -443217.156 7   -327847.877 9
  23965721.165    -1901618.495 3   -976096.842 1
  21638941.384   -13671280.099 6 -10470557.076 6
  20276140.540    -9852764.134 7  -7607694.879 9
  20460232.563    -6414332.357 7  -4930147.443 8
  23345489.673    -3730406.825 3   -764453.908 2
 95 10 22  1  1 29.9970000  0  6 14  4 18 29 22 19
  19669206.728     -447123.671 7   -330891.914 9
  23957397.634    -1945364.367 3  -1010184.524 1
  21617719.837   -13782795.748 6 -10557452.363 6
  20261987.782    -9927134.129 7  -7665645.516 9
  20456822.696    -6432254.869 7  -4944113.025 8
  23322301.118    -3852274.813 4   -859415.934 3
 95 10 22  1  1 59.9970000  0  6 14  4 18 29 22 19
  19668573.149     -450461.942 7   -333493.166 9
  23949161.376    -1988631.101 3  -1043898.900 1
  21596509.009   -13894252.287 6 -10644301.586 6
  20247869.595   -10001327.140 7  -7723458.244 9
  20453532.392    -6449550.403 7  -4957590.056 8
  23299136.165    -3973968.023 4   -954241.725 2
 95 10 22  1  2 29.9970000  0  6 14  4 18 29 22 19
  19668045.735     -453225.426 7   -335646.530 9
  23941018.399    -2031402.328 3  -1077227.070 1
  21575313.681   -14005635.656 6 -10731093.795 6
  20233784.267   -10075346.787 7  -7781135.886 9
  20450357.767    -6466233.329 7  -4970589.736 8
  23276021.610    -4095488.581 3  -1048933.041 2
 95 10 22  1  2 59.9970000  0  6 14  4 18 29 22 19
  19667626.345     -455430.562 7   -337364.816 9
  23932978.087    -2073680.954 3  -1110171.449 1
  21554137.540   -14116930.631 6 -10817817.129 6
  20219731.821   -10149197.468 7  -7838681.867 9
  20447294.118    -6482332.213 7  -4983134.313 8
  23252931.978    -4216843.899 5  -1143495.578 1
 95 10 22  1  3 29.9970000  0  6 14  4 18 29 22 19
  19667313.259     -457079.619 7   -338649.798 9
  23925021.439    -2115472.875 3  -1142736.579 1
  21532980.446   -14228101.846 6 -10904444.018 6
  20205704.876   -10222902.173 7  -7896114.094 9
  20444342.899    -6497849.321 7  -4995225.563 8
  23229870.290    -4338027.600 4  -1237924.427 2
 95 10 22  1  3 59.9970000  0  6 14  4 18 29 22 19
  19667104.899     -458181.965 7   -339508.772 9
  23917162.704    -2156770.595 3  -1174916.606 2
  21511851.892   -14339130.696 6 -10990959.980 6
  20191708.907   -10296457.404 7  -7953429.855 9
  20441502.079    -6512777.012 7  -5006857.529 8
  23206839.603    -4459023.583 4  -1332206.959 2
 95 10 22  1  4 29.9970000  0  6 14  4 18 29 22 19
  19666997.743     -458747.749 7   -339949.640 9
  23909392.923    -2197566.466 3  -1206705.620 2
  21490752.626   -14450010.914 6 -11077360.122 6
  20177745.712   -10369833.416 7  -8010605.958 9
  20438770.853    -6527118.358 7  -5018032.591 8
  23183847.017    -4579843.547 4  -1426352.346 2
 95 10 22  1  4 59.9970000  0  6 14  4 18 29 22 19
  19666990.993     -458787.530 7
  23901722.931    -2237874.734 3  -1238114.622 1
  21469678.470   -14560758.696 6 -11163657.058 6
  20163816.603   -10443027.289 7  -8067640.140 9
  20436151.970    -6540876.187 7  -5028752.971 8
  23160891.743    -4700496.842 3  -1520367.917 2
 95 10 22  1  5 29.9970000  0  6 14  4 18 29 22 19
  19667082.978     -458285.749 7
  23894152.954    -2277703.828 3  -1269150.313 1
  21448622.493   -14671398.780 6 -11249870.084 6
  20149924.587   -10516042.592 7  -8124535.175 9
  20433645.243    -6554044.416 7  -5039013.930 8
  23137961.282    -4820994.130 5  -1614261.845 1
 95 10 22  1  5 59.9970000  0  6 14  4 18 29 22 19
  19667282.829     -457239.697 7   -338774.539 9
  23886661.681    -2317047.261 3  -1299807.514 1
  21427585.149   -14781958.933 6 -11336020.829 6
  20136066.228   -10588858.985 7  -8181275.213 9
  20431251.704    -6566629.923 7  -5048820.810 8
  23115060.392    -4941340.592 5  -1708038.313 1
 95 10 22  1  6 29.9970000  0  6 14  4 18 29 22 19
  19667585.868     -455640.050 7   -337528.065 8
  23879266.306    -2355891.353 3  -1330075.595 2
  21406560.657   -14892441.097 6 -11422110.792 6
  20122249.306   -10661466.735 7  -8237852.680 9
  20428972.243    -6578621.381 7  -5058164.798 8
  23092190.134    -5061538.296 5  -1801698.828 2
 95 10 22  1  6 59.9970000  0  6 14  4 18 29 22 19
  19667998.001     -453462.677 7   -335831.413 8
  23871967.954    -2394242.351 2  -1359959.503 2
  21385551.829   -15002843.933 6 -11508138.951 6
  20108471.962   -10733867.861 7  -8294269.133 9
  20426806.345    -6590008.325 7  -5067037.735 8
  23069339.618    -5181573.827 4  -1895232.997 2
 95 10 22  1  7 29.9970000  0  6 14  4 18 29 22 19
  19668526.095     -450710.685 7   -333687.007 8
  23864767.243    -2432111.381 3  -1389467.846 1
  21364558.368   -15113163.962 6 -11594102.590 6
  20094734.251   -10806058.719 7  -8350521.744 9
  20424752.228    -6600791.232 7  -5075439.998 8
  23046529.368    -5301448.032 5  -1988641.374 3
 95 10 22  1  7 59.9970000  0  6 14  4 18 29 22 19
  19669155.868     -447405.816 7   -331111.788 8
  23857647.024    -2469502.629 3  -1418603.849 2
  21343583.860   -15223398.070 6 -11679999.270 6
  20081036.728   -10878040.429 7  -8406611.383 9
  20422811.165    -6610979.683 7  -5083379.041 8
  23023753.962    -5421154.668 5  -2081919.210 2
 95 10 22  1  8 29.9970000  0  6 14  4 18 29 22 19
  19669886.095     -443557.854 7   -328113.376 8
  23850623.610    -2506434.026 3  -1447381.567 2
  21322621.337   -15333547.128 6 -11765829.689 6
  20067373.743   -10949838.326 7  -8462557.784 9
  20420986.970    -6620587.009 7  -5090865.267 8
  23001004.829    -5540705.731 5  -2175075.839 2
 95 10 22  1  8 59.9970000  0  6 14  4 18 29 22 19
  19670719.329     -439168.055 7   -324692.750 8
  23843678.774    -2542916.193 3  -1475809.237 2
  21301676.564   -15443609.219 6 -11851592.335 6
  20053744.321   -11021462.863 7  -8518369.115 9
  20419266.774    -6629628.431 7  -5097910.525 8
  22978287.165    -5660092.007 5  -2268104.049 2
 95 10 22  1  9 29.9970000  0  6 14  4 18 29 22 19
  19671655.446     -434263.657 7   -320871.149 8
  23836824.806    -2578945.453 2  -1503883.953 1
  21280749.446   -15553591.546 6 -11937292.835 6
  20040145.837   -11092924.488 7  -8574053.490 9
  20417652.009    -6638102.086 7  -5104513.362 8
  22955592.610    -5779308.810 5  -2361000.163 2
 95 10 22  1  9 59.9970000  0  6 14  4 18 29 22 19
  19672684.251     -428844.394 7   -316648.350 8
  23830057.610    -2614507.593 3  -1531594.733 1
  21259836.657   -15663483.506 6 -12022922.917 6
  20026578.774   -11164219.248 7  -8629607.839 9
  20416147.626    -6646008.416 7  -5110674.128 8
  22932949.376    -5898346.894 5  -2453757.067 4
 95 10 22  1 10 29.9970000  0  6 14  4 18 29 22 19
  19673812.556     -422910.909 7   -312024.861 8
  23823377.931    -2649607.332 3  -1558945.117 1
  21238941.134   -15773287.449 6 -12108484.415 6
  20013040.314   -11235365.665 7  -8685046.601 9
  20414753.728    -6653356.289 7  -5116399.739 8
  22910318.665    -6017223.731 4  -2546388.304 4
 95 10 22  1 10 59.9970000  0  6 14  4 18 29 22 19
  19675044.946     -416451.766 7   -306991.764 8
  23816792.618    -2684223.181 3  -1585918.546 2
  21218069.274   -15882971.359 6 -12193952.383 6
  19999536.056   -11306323.168 7  -8740338.158 9
  20413462.884    -6660106.959 7  -5121659.992 8
  22887735.267    -6135916.287 5  -2638875.959 4
 95 10 22  1 11 29.9970000  0  6 14  4 18 29 22 19
  19676370.220     -409469.882 7   -301551.338 8
  23810294.376    -2718357.755 3  -1612516.929 2
  21197220.368   -15992533.095 6 -12279325.151 6
  19986072.235   -11377084.775 7  -8795477.071 9
  20412298.767    -6666251.413 7  -5126447.864 8
  22865186.790    -6254435.727 5  -2731228.713 3
 95 10 22  1 11 59.9970000  0  6 14  4 18 29 22 19
  19677807.603     -401938.923 7   -295683.062 8
  23803889.204    -2752005.159 3  -1638735.631 1
  21176397.376   -16101953.839 6 -12364588.056 6
  19972645.634   -11447645.506 7  -8850459.453 9
  20411241.524    -6671791.560 7  -5130764.852 8
  22842668.899    -6372776.739 5  -2823442.447 5
 95 10 22  1 12 29.9970000  0  6 14  4 18 29 22 19
  19679339.376     -393870.556 7   -289396.025 8
  23797573.478    -2785190.092 3  -1664594.042 1
  21155596.149   -16211260.719 6 -12449762.233 6
  19959251.509   -11518024.546 7  -8905300.250 9
  20410301.251    -6676736.605 7  -5134618.120 8
  22820167.321    -6490958.478 4  -2915532.078 3
 95 10 22  1 12 59.9970000  0  6 14  4 18 29 22 19
  19680979.806     -385259.522 7   -282686.132 8
  23791355.532    -2817917.341 3  -1690095.811 1
  21134817.056   -16320458.067 6 -12534851.060 6
  19945899.845   -11588192.029 7  -8959976.210 9
  20409472.829    -6681086.653 7  -5138007.757 8
  22797725.556    -6608964.242 5  -3007484.580 4
 95 10 22  1 13 29.9970000  0  6 14  4 18 29 22 19
  19682723.688     -376093.114 7   -275543.477 8
  23785210.071    -2850174.162 3  -1715230.993 1
  21114054.595   -16429564.380 6 -12619868.959 6
  19932585.978   -11658157.321 7  -9014494.617 9
  20408754.712    -6684861.664 7  -5140949.313 8
  22775298.032    -6726777.675 5  -3099287.206 5
 95 10 22  1 13 59.9970000  0  6 14  4 18 29 22 19
  19684572.415     -366368.423 7   -267965.809 8
  23779164.126    -2881961.978 3  -1740000.709 1
  21093309.368   -16538585.944 6 -12704820.815 6
  19919310.634   -11727915.637 7  -9068851.736 9
  20408141.767    -6688074.472 7  -5143452.790 8
  22752919.173    -6844397.028 5  -3190938.621 5
 95 10 22  1 14 29.9960000  0  6 14  4 18 29 22 19
  19686530.184     -356102.576 7   -259966.446 9
  23773201.254    -2913287.295 3  -1764410.083 1
  21072579.277   -16647530.451 6 -12789712.634 6
  19906075.723   -11797463.323 7  -9123044.735 9
  20407636.418    -6690732.008 7  -5145523.584 8
  22730565.629    -6961828.622 5  -3282443.715 4
 95 10 22  1 14 59.9960000  0  6 14  4 18 29 22 19
  19688582.957     -345297.682 7   -251547.058 9
  23767326.160    -2944146.619 3  -1788456.277 1
  21051860.184   -16756399.223 6 -12874545.428 6
  19892879.207   -11866811.835 7  -9177082.532 9
  20407238.184    -6692849.788 7  -5147173.790 8
  22708257.012    -7079077.091 5  -3373806.129 4
 95 10 22  1 15 29.9960000  0  6 14  4 18 29 22 19
  19690741.566     -333958.044 7   -242710.979 9
  23761546.074    -2974527.061 2  -1812129.372 1
  21031164.856   -16865163.027 6 -12959296.430 6
  19879719.895   -11935967.540 7  -9230970.086 9
  20406933.332    -6694415.500 7  -5148393.816 8
  22685980.598    -7196140.435 4  -3465024.283 4
 95 10 22  1 15 59.9960000  0  6 14  4 18 29 22 19
  19693001.348     -322090.746 7   -233463.742 9
  23755857.137    -3004442.852 3  -1835440.376 2
  21010491.754   -16973799.645 6 -13043948.323 6
  19866596.770   -12004929.857 7  -9284706.953 9
  20406744.246    -6695418.878 7  -5149175.663 8
  22663737.379    -7313026.940 4  -3556104.643 5
 95 10 22  1 16 29.9960000  0  6 14  4 18 29 22 19
  19695354.176     -309708.283 7   -223815.078 9
  23750245.012    -3033900.457 3  -1858394.322 1
  20989842.426   -17082300.138 6 -13128494.142 6
  19853510.605   -12073704.749 7  -9338297.772 9
  20406663.574    -6695866.014 7
  22641529.168    -7429741.981 5  -3647051.387 4
 95 10 22  1 16 59.9960000  0  5 14 18 29 22 19
  19697811.113     -296805.418 7   -213760.901 9
  20969226.371   -17190642.615 6 -13212916.843 6
  19840461.184   -12142272.676 7  -9391727.321 9
  20406682.066    -6695739.401 7
  22619358.824    -7546277.280 5  -3737858.056 4
 95 10 22  1 17 29.9960000  0  6 14  4 18 29 22 19
  19700362.465     -283404.967 7   -203319.001 9
  23739293.543          -0.33313
  20948637.481   -17298841.778 6 -13297227.868 6
  19827451.254   -12210640.375 7  -9445000.851 9
  20406814.418    -6695046.691 7  -5148885.624 8
  22597212.426    -7662647.161 5  -3828535.827 4
 95 10 22  1 17 59.9960000  0  6 14  4 18 29 22 19
  19703007.613     -269501.270 7   -192484.959 9
  23733942.496      -28112.400 3
  20928074.684   -17406899.754 6 -13381428.868 6
  19814482.488   -12278792.697 7  -9498106.545 9
  20407057.574    -6693792.265 7  -5147908.142 8
  22575098.270    -7778841.275 5  -3919076.640 3
 95 10 22  1 18 29.9960000  0  6 14  4 18 29 22 19
  19705744.645     -255105.416 7   -181267.417 9
  23728684.402      -55777.354 3        -0.25811
  20907535.363   -17514830.149 6 -13465530.450 6
  19801557.324   -12346714.624 7  -9551032.718 9
  20407400.035    -6691983.307 7  -5146498.556 8
  22553017.285    -7894861.273 5  -4009481.771 4
 95 10 22  1 18 59.9960000  0  6 14  4 18 29 22 19
  19708576.473     -240226.949 7   -169673.810 9
  23723502.137      -83001.733 3    -21214.035 1
  20887018.707   -17622650.121 6 -13549546.004 6
  19788672.449   -12414421.586 7  -9603791.387 9
  20407847.551    -6689626.210 7  -5144661.853 8
  22530975.887    -8010701.234 5  -4099746.619 4
 95 10 22  1 19 29.9960000  0  6 14  4 18 29 22 19
  19711503.238     -224853.776 7   -157694.729 9
  23718409.754     -109769.583 3    -42072.137 1
  20866522.770   -17730353.438 6 -13633470.645 6
  19775829.160   -12481916.015 7  -9656384.448 9
  20408398.715    -6686725.779 7  -5142401.774 8
  22508973.887    -8126352.130 5  -4189864.141 2
 95 10 22  1 19 59.9960000  0  6 14  4 18 29 22 19
  19714523.645     -208977.329 7   -145323.479 9
  23713403.191     -136080.767 3    -62574.359 1
  20846050.840   -17837934.226 6 -13717299.818 6
  19763026.598   -12549194.554 7  -9708809.279 9
  20409051.949    -6683285.364 7  -5139720.924 8
  22486991.418    -8241819.734 5  -4279838.850 4
 95 10 22  1 20 29.9960000  0  6 14  4 18 29 22 19
  19717644.957     -192584.344 7   -132549.730 9
  23708484.637     -161941.534 3    -82725.607 2
  20825602.191   -17945393.748 6 -13801034.490 6
  19750263.715   -12616257.741 7  -9761066.302 9
  20409812.676    -6679302.612 7  -5136617.476 8
  22465056.254    -8357101.863 5  -4369669.029 2
 95 10 22  1 20 59.9960000  0  6 14  4 18 29 22 19
  19720865.207     -175655.809 7   -119358.676 9
  23703648.106     -187343.743 3   -102519.518 1
  20805181.301   -18052711.048 6 -13884658.336 6
  19737543.043   -12683106.738 7  -9813156.418 9
  20410673.746    -6674764.740 7  -5133081.469 8
  22443158.481    -8472189.903 5  -4459347.972 4
 95 10 22  1 21 29.9960000  0  6 14  4 18 29 22 19
  19724191.582     -158187.536 7   -105747.049 9
  23698896.543     -212300.578 3   -121966.410 1
  20784780.348   -18159910.039 6 -13968189.999 6
  19724863.301   -12749741.710 7  -9865079.770 9
  20411642.629    -6669681.186 7  -5129120.247 8
  22421290.043    -8587118.662 5  -4548902.809 3
 95 10 22  1 21 59.9960000  0  6 14  4 18 29 22 19
  19727617.012     -140182.569 7    -91717.207 9
  23694226.613     -236818.629 3   -141071.345 1
  20764400.934   -18267006.627 6 -14051641.871 6
  19712226.152   -12816155.293 7  -9916830.607 9
  20412712.856    -6664048.887 7  -5124731.438 8
  22399453.457    -8701878.821 5  -4638326.252 4
 95 10 22  1 22 29.9960000  0  6 14  4 18 29 22 19
  19731145.613     -121639.258 7    -77267.882 9
  23689646.981     -260889.901 3   -159828.210 1
  20744042.582   -18373991.059 6 -14135006.345 6
  19699631.043   -12882343.308 7  -9968405.681 9
  20413889.496    -6657856.190 7  -5119905.952 8
  22377644.285    -8816459.790 5  -4727610.096 4
 95 10 22  1 22 59.9960000  0  6 14  4 18 29 22 19
  19734777.027     -102560.733 7    -62401.510 9
  23685158.332     -284509.208 3   -178232.860 1
  20723708.332   -18480851.517 6 -14218274.221 6
  19687076.832   -12948309.339 7 -10019807.771 9
  20415177.176    -6651099.375 7  -5114640.889 8
  22355870.582    -8930877.072 5  -4816766.370 5
 95 10 22  1 23 29.9960000  0  6 14  4 18 29 22 19
  19738505.824      -82959.238 7    -47127.632 9
  23680742.137     -307685.394 3   -196292.236 1
  20703394.043   -18587595.363 6 -14301451.234 6
  19674567.762   -13014057.347 7 -10071039.982 9
  20416568.441    -6643794.837 7  -5108949.033 8
  22334131.840    -9045132.391 5  -4905796.448 4
 95 10 22  1 23 59.9960000  0  6 14  4 18 29 22 19
  19742332.098      -62855.111 7    -31462.082 9
  23676417.801     -330415.815 3   -214004.247 1
  20683111.738   -18694189.321 6 -14384511.447 6
  19662096.785   -13079582.813 7 -10122098.781 9
  20418062.559    -6635940.857 7  -5102829.038 8
  22312424.152    -9159199.458 5  -4994679.855 4
 95 10 22  1 24 29.9960000  0  6 14  4 18 29 22 19
  19746252.168      -42253.877 7    -15409.183 9
  23672182.965     -352699.874 3   -231368.441 1
  20662859.504   -18800618.305 6 -14467443.108 6
  19649669.902   -13144881.248 7 -10172980.672 9
  20419659.566    -6627542.670 7  -5096284.986 8
  22290753.981    -9273085.067 5  -5083421.852 5
 95 10 22  1 24 59.9960000  0  6 14  4 18 29 22 19
  19750263.637      -21164.355 7      1024.199 8
  23668030.816     -374526.286 3   -248376.043 1
  20642633.730   -18906897.686 6 -14550258.192 6
  19637287.621   -13209953.248 7 -10223686.119 9
  20421362.770    -6618602.817 7  -5089318.858 8
  22269118.988    -9386781.556 5  -5172016.501 4
 95 10 22  1 25 29.9960000  0  6 14  4 18 29 22 19
  19754362.176         375.942 7     17808.829 9
  23663953.660     -395902.731 2   -265032.997 1
  20622433.543   -19013053.147 6 -14632976.721 6
  19624946.848   -13274806.362 7 -10274221.009 9
  20423166.199    -6609137.747 7  -5081943.468 8
  22247517.973    -9500277.204 5  -5260454.620 5
 95 10 22  1 25 59.9960000  0  6 14  4 18 29 22 19
  19758546.762       22361.755 7     34940.626 9
  23659979.277     -416829.363 3   -281339.387 1
  20602254.809   -19119090.519 7 -14715603.230 6
  19612648.605   -13339436.925 7 -10324582.476 9
  20425066.785    -6599149.760 7  -5074160.609 8
  22225959.871    -9613573.005 5  -5348737.026 5
 95 10 22  1 26 29.9960000  0  6 14  4 18 29 22 19
  19762821.215       44820.104 7     52440.630 9
  23656087.707     -437289.468 3   -297282.396 1
  20582099.504   -19225008.993 7 -14798137.090 7
  19600395.363   -13403826.347 7 -10374756.046 9
  20427065.371    -6588627.548 7  -5065961.481 8
  22204441.723    -9726666.650 5  -5436861.910 5
 95 10 22  1 26 59.9960000  0  6 14  4 18 29 22 19
  19767183.762       67742.651 7     70302.344 9
  23652278.066     -457297.846 3   -312873.329 1
  20561965.535   -19330808.752 7 -14880578.443 6
  19588184.926   -13467990.763 7 -10424754.285 9
  20429169.371    -6577577.066 7  -5057350.707 8
  22182951.746    -9839575.807 5  -5524843.023 4
 95 10 22  1 27 29.9960000  0  6 14  4 18 29 22 19
  19771636.316       91155.495 7     88546.108 9
  23648553.012     -476865.734 3   -328121.052 1
  20541863.770   -19436453.113 7 -14962898.716 6
  19576023.379   -13531903.428 7 -10474556.356 9
  20431375.973    -6565995.798 7  -5048326.335 8
  22161502.629    -9952300.308 5  -5612680.272 5
 95 10 22  1 27 59.9960000  0  6 14  4 18 29 22 19
  19776191.652      115084.955 7    107192.428 8
  23644912.582     -495995.024 3   -343027.004 1
  20521792.684   -19541917.549 6 -15045078.785 7
  19563909.801   -13595563.086 7 -10524161.280 9
  20433680.301    -6553874.027 7  -5038880.788 8
  22140086.301   -10064850.263 5  -5700381.490 5
 95 10 22  1 28 29.9960000  0  6 14  4 18 29 22 19
  19780840.145      139517.240 7    126230.563 8
  23641353.965     -514709.111 3
  20501757.566   -19647208.412 6 -15127123.600 7
  19551840.356   -13658989.281 7 -10573584.284 9
  20436087.738    -6541212.193 7  -5029014.420 8
  22118697.418   -10177240.188 5  -5787958.011 5
 95 10 22  1 28 59.9960000  0  6 14  4 18 29 22 19
  19785585.254      164450.841 7    145659.329 9
  23637864.426     -533023.053 3        -0.02211
  20481755.246   -19752326.472 7 -15209033.763 6
  19539811.777   -13722192.154 7 -10622833.272 9
  20438605.043    -6528006.656 7  -5018724.389 7
  22097343.926   -10289465.021 5  -5875405.898 5
 95 10 22  1 29 29.9960000  0  6 14  4 18 29 22 19
  19790424.863      189873.317 7    165469.037 8
  23634451.426     -550947.850 3    -13967.382 1
  20461780.793   -19857286.161 7 -15290820.516 7
  19527827.395   -13785173.495 7 -10671909.635 9
  20441215.965    -6514270.698 7  -5008021.040 8
  22076025.027   -10401510.779 5  -5962714.246 5
 95 10 22  1 29 59.9960000  0  6 14  4 18 29 22 19
  19795351.910      215783.500 7    185658.780 8
  23631112.785     -568482.757 3    -27630.923 1
  20441834.902   -19962098.345 7 -15372492.337 7
  19515884.629   -13847930.577 7 -10720811.255 9
  20443934.473    -6500000.805 7  -4996901.635 7
  22054733.324   -10513358.874 5  -6049868.570 5
 95 10 22  1 30 29.9960000  0  6 14  4 18 29 22 19
  19800377.449      242172.984 7    206222.002 8
  23627859.934     -585624.923 3    -40988.461 1
  20421919.902   -20066760.606 7 -15454047.329 7
  19503988.574   -13910444.800 7 -10769523.632 9
  20446744.895    -6485208.816 7  -4985375.402 7
  22033496.059   -10624998.768 5  -6136860.653 5
 95 10 22  1 30 59.9960000  0  6 14  4 18 29 22 19
  19805488.410      269043.334 7    227159.929 9
  23624672.668     -602351.990 3    -54022.512 1
  20402036.660   -20171249.668 7 -15535467.368 7
  19492143.199   -13972696.824 7 -10818031.695 9
  20449656.277    -6469916.863 7  -4973459.591 7
  22012284.684   -10736427.833 5  -6223688.459 5
 95 10 22  1 31 29.9960000  0  6 14  4 18 29 22 19
  19810687.543      296360.267 7    248445.838 9
  23621571.356     -618674.701 3    -66741.459 1
  20382181.965   -20275582.301 7 -15616765.515 7
  19480345.043   -14034699.867 7 -10866345.752 9
  20452652.738    -6454165.282 7  -4961185.628 8
  21991114.738   -10847674.069 5  -6310373.824 5
 95 10 22  1 31 59.9960000  0  6 14  4 18 29 22 19
  19815970.715      324137.447 7    270090.377 9
  23618537.613     -634569.752 3    -79127.222 1
  20362359.434   -20379750.212 7 -15697935.298 7
  19468595.105   -14096448.940 7 -10914461.903 9
  20455740.606    -6437947.790 7  -4948548.611 8
  21969978.707   -10958749.575 5  -6396926.129 5
 95 10 22  1 32 29.9960000  0  5 14 18 29 22 19
  19821347.426      352370.399 7    292090.068 9
  20342570.949   -20483741.761 7 -15778967.661 7
  19456890.676   -14157944.966 7 -10962380.881 9
  20458915.059    -6421259.331 7  -4935544.609 8
  21948875.645   -11069662.236 5  -6483351.548 5
 95 10 22  1 32 59.9960000  0  5 14 18 29 22 19
  19826803.457      381061.306 7    314446.610 9
  20322809.176   -20587581.470 7 -15859881.703 7
  19445235.660   -14219203.780 7 -11010115.016 9
  20462183.309    -6404092.350 7  -4922167.739 7
  21927796.480   -11180420.736 5  -6569656.867 5
 95 10 22  1 33 29.9960000  0  5 14 18 29 22 19
  19832355.441      410225.759 7    337172.144 9
  20303074.934   -20691290.769 7 -15940694.129 7
  19433620.176   -14280237.083 7 -11057673.430 9
  20465542.434    -6386421.952 7  -4908398.589 7
  21906755.480   -11291014.506 5  -6655833.808 5
 95 10 22  1 33 59.9960000  0  5 14 18 29 22 19
  19837995.207      439873.035 7    360273.904 9
  20283364.793   -20794871.044 7 -16021406.020 7
  19422048.434   -14341047.247 7 -11105057.967 9
  20469008.020    -6368236.153 7  -4894227.824 7
  21885737.395   -11401440.866 5  -6741880.298 5
 95 10 22  1 34 29.9960000  0  5 14 18 29 22 19
  19843728.996      469994.180 7    383744.913 9
  20263679.559   -20898318.634 7 -16102014.522 7
  19410520.324   -14401627.539 7 -11152263.382 9
  20472563.691    -6349533.520 7  -4879654.335 7
  21864762.668   -11511685.640 5  -6827785.293 5
 95 10 22  1 34 59.9950000  0  5 14 18 29 22 19
  19849549.405      500590.763 7    407586.397 9
  20244022.124   -21001624.115 7 -16182512.290 7
  19399036.304   -14461969.790 7 -11199283.309 9
  20476224.398    -6330313.926 7  -4864678.013 7
  21843818.140   -11621736.655 5  -6913539.303 5
 95 10 22  1 35 29.9950000  0  5 14 18 29 22 19
  19855460.726      531652.422 7    431790.274 9
  20224392.038   -21104776.767 7 -16262890.964 7
  19387600.499   -14522071.298 7 -11246115.642 9
  20479977.023    -6310589.261 7  -4849308.132 7
  21822910.952   -11731606.610 5  -6999152.228 5
 95 10 22  1 35 59.9950000  0  5 14 18 29 22 19
  19861460.398      563162.611 7    456343.653 8
  20204796.796   -21207743.895 7 -16343125.073 7
  19376213.679   -14581904.783 7 -11292739.126 9
  20483823.812    -6290361.840 7  -4833546.497 7
  21802042.749   -11841285.111 5  -7084615.972 5
 95 10 22  1 36 29.9950000  0  5 14 18 29 22 19
  19867535.304      595109.304 7    481237.168 9
  20185240.983   -21310517.803 7 -16423208.625 7
  19364877.694   -14641477.263 7 -11339159.241 9
  20487768.163    -6269641.100 7  -4817400.463 7
  21781204.023   -11950770.956 5  -7169929.590 5
 95 10 22  1 36 59.9950000  0  5 14 18 29 22 19
  19873700.140      627496.794 7    506474.157 9
  20165719.827   -21413103.888 7 -16503145.821 7
  19353590.655   -14700790.354 7 -11385377.220 9
  20491805.405    -6248430.400 7  -4800872.631 7
  21760408.679   -12060072.249 5  -7255099.404 5
 95 10 22  1 37 29.9950000  0  5 14 18 29 22 19
  19879945.038      660324.939 7    532054.521 9
  20146232.108   -21515507.211 7 -16582940.600 7
  19342352.905   -14759844.388 7 -11431393.340 9
  20495932.663    -6226732.598 7  -4783965.248 7
  21739648.702   -12169174.221 5  -7340113.889 5
 95 10 22  1 37 59.9950000  0  5 14 18 29 22 19
  19886281.874      693606.385 7    557988.106 9
  20126780.585   -21617721.194 7 -16662587.853 7
  19331166.140   -14818641.915 7 -11477209.583 9
  20500152.351    -6204549.472 7  -4766679.686 7
  21718927.898   -12278049.489 5  -7424951.720 5
 95 10 22  1 38 29.9950000  0  5 14 18 29 22 19
  19892698.694      727335.425 7    584270.465 9
  20107362.632   -21719763.038 7 -16742100.968 7
  19320025.265   -14877184.201 7 -11522826.939 9
  20504465.062    -6181897.643 7  -4749028.899 7
  21698247.741   -12386707.802 5  -7509620.495 5
 95 10 22  1 38 59.9950000  0  5 14 18 29 22 19
  19899198.632      761504.553 7    610895.746 8
  20087976.483   -21821639.970 7 -16821485.569 7
  19308936.671   -14935455.075 7 -11568232.801 9
  20508865.843    -6158780.358 7  -4731015.425 7
  21677617.421   -12495151.337 5  -7594121.910 5
 95 10 22  1 39 29.9950000  0  6 14 28 18 29 22 19
  19905786.288      796117.503 7    637866.863 8
  23501182.241          -0.09215
  20068625.983   -21923319.924 7 -16900716.684 7
  19297899.882   -14993449.533 7 -11613423.279 9
  20513353.640    -6135191.944 6  -4712634.834 7
  21657017.944   -12603370.145 5  -7678448.222 5
 95 10 22  1 39 59.9950000  0  6 14 28 18 29 22 19
  19912455.374      831162.100 7    665174.327 8
  23480345.851     -109498.364 5
  20049317.577   -22024798.679 7 -16979791.019 7
  19286917.108   -15051168.118 7 -11658398.787 9
  20517931.069    -6111136.652 6  -4693890.447 7
  21636465.437   -12711394.772 5  -7762623.224 5
 95 10 22  1 40 29.9950000  0  6 14 28 18 29 22 19
  19919205.351      866627.908 7    692810.012 8
  23459527.773     -218905.490 5        -0.49111
  20030042.398   -22126092.855 7 -17058721.530 7
  19275986.148   -15108604.510 7 -11703154.405 9
  20522598.905    -6086606.631 6  -4674776.138 7
  21615939.179   -12819252.678 5  -7846668.310 5
 95 10 22  1 40 59.9950000  0  6 14 28 18 29 22 19
  19926037.194      902523.504 7    720780.597 8
  23438717.515     -328217.622 4
  20010798.663   -22227208.811 7 -17137513.164 7
  19265106.343   -15165782.036 7 -11747708.313 9
  20527354.460    -6061605.745 6  -4655294.918 7
  21595446.140   -12926943.102 5  -7930582.893 5
 95 10 22  1 41 29.9950000  0  6 14 28 18 29 22 19
  19932950.554      938853.164 7    749089.410 8
  23417941.398     -437434.713 4
  19991590.140   -22328151.817 7 -17216170.035 7
  19254272.358   -15222712.838 7 -11792069.967 9
  20532198.460    -6036150.880 6  -4635459.957 7
  21574988.687   -13034466.541 5  -8014367.357 5
 95 10 22  1 41 59.9950000  0  6 14 28 18 29 22 19
  19939949.679      975627.370 7    777744.621 8
  23397180.030     -546543.978 4
  19972412.960   -22428934.360 7 -17294701.873 7
  19243491.171   -15279369.643 7 -11836218.120 9
  20537128.577    -6010235.925 6  -4615266.478 7
  21554559.835   -13141804.453 5  -8098007.270 5
 95 10 22  1 42 29.9950000  0  6 14 28 18 29 22 19
  19947031.312     1012844.419 7    806744.909 8
  23376436.663     -655546.826 4        -0.31911
  19953265.374   -22529554.257 7 -17373106.966 7
  19232762.601   -15335754.712 7 -11880154.530 9
  20542148.640    -5983862.669 6  -4594715.882 7
  21534171.249   -13248948.453 5  -8181496.073 5
 95 10 22  1 42 59.9950000  0  6 14 28 18 29 22 19
  19954195.257     1050496.190 7    836083.935 8
  23355719.741     -764445.428 5    -84856.336 2
  19934150.421   -22629996.845 7 -17451373.901 7
  19222082.890   -15391873.742 7 -11923883.633 9
  20547253.062    -5957036.853 7  -4573812.646 7
  21513821.132   -13355890.726 5  -8264827.685 5
 95 10 22  1 43 29.9950000  0  6 14 28 18 29 22 19
  19961442.304     1088577.460 7    865757.637 8
  23335010.851     -873228.761 3   -169622.514 1
  19915075.773   -22730234.902 7 -17529481.462 7
  19211458.663   -15447704.074 7 -11967387.780 9
  20552448.905    -5929733.811 6  -4552537.546 7
  21493508.530   -13462624.444 5  -8347996.787 5
 95 10 22  1 43 59.9950000  0  6 14 28 18 29 22 19
  19968768.788     1127074.795 7    895755.551 8
  23314332.257     -981899.707 3   -254301.135 2
  19896044.233   -22830257.065 7 -17607420.793 7
  19200887.476   -15503251.591 7 -12010671.553 9
  20557736.093    -5901945.295 6  -4530884.151 7
  21473234.780   -13569164.308 5  -8431014.834 5
 95 10 22  1 44 29.9950000  0  6 14 28 18 29 22 19
  19976171.890     1165984.291 7    926074.626 8
  23293669.624    -1090453.418 3   -338888.363 1
  19877055.366   -22930042.660 7 -17685175.782 7
  19190370.351   -15558521.837 7 -12053739.269 9
  20563116.765    -5873669.414 6  -4508850.998 7
  21452994.648   -13675519.840 5  -8513889.262 5
 95 10 22  1 44 59.9950000  0  6 14 28 18 29 22 19
  19983654.937     1205304.876 6    956714.029 8
  23273050.093    -1198890.413 3   -423384.700 3
  19858107.585   -23029610.886 7 -17762761.400 7
  19179903.530   -15613520.605 7 -12096595.446 9
  20568587.546    -5844933.834 6  -4486459.636 7
  21432791.601   -13781699.004 5  -8596626.266 5
 95 10 22  1 45 29.9950000  0  6 14 28 18 29 22 19
  19991212.999     1245038.623 6    987675.379 8
  23252439.616    -1307210.621 3   -507789.996 2
  19839200.757   -23128966.859 7 -17840181.624 7
  19169490.030   -15668244.476 7 -12139237.418 9
  20574138.726    -5815755.334 6  -4463723.131 7
  21412618.444   -13887714.210 5  -8679235.498 5
 95 10 22  1 45 59.9950000  0  6 14 28 18 29 22 19
  19998854.054     1285191.918 7   1018963.651 8
  23231832.780    -1415402.448 3   -592095.285 3
  19820332.890   -23228121.985 7 -17917445.344 7
  19159131.296   -15722679.859 7 -12181654.594 9
  20579776.382    -5786142.250 6  -4440647.998 7
  21392475.858   -13993562.105 5  -8761714.370 5
 95 10 22  1 46 29.9950000  0  6 14 28 18 29 22 19
  20006573.483     1325758.367 7   1050573.854 8
  23211267.757    -1523463.196 2   -676298.411 4
  19801498.116   -23327094.437 7 -17994566.721 7
  19148829.249   -15776819.909 7 -12223841.643 9
  20585492.382    -5756097.562 6  -4417236.547 7
  21372369.538   -14099229.539 5  -8844052.620 5
 95 10 22  1 46 59.9950000  0  6 14 28 18 29 22 19
  20014374.187     1366736.067 6   1082504.515 8
  23190744.179    -1631389.198 3   -760396.557 4
  19782698.773   -23425886.595 7 -18071547.613 7
  19138584.710   -15830658.490 7 -12265793.776 9
  20591289.554    -5725619.246 6  -4393487.207 7
  21352295.069   -14204710.149 6  -8926245.290 5
 95 10 22  1 47 29.9950000  0  6 14 28 18 29 22 19
  20022246.663     1408107.526 7   1114742.005 8
  23170228.593    -1739181.277 3   -844390.367 4
  19763934.194   -23524494.303 7 -18148384.778 7
  19128396.530   -15884199.231 7 -12307513.830 9
  20597175.952    -5694695.791 6  -4369391.005 7
  21332257.304   -14310007.078 6  -9008294.832 5
 95 10 22  1 47 59.9950000  0  6 14 28 18 29 22 19
  20030191.968     1449865.432 7   1147280.619 8
  23149739.812    -1846833.426 2   -928275.113 3
  19745206.679   -23622911.628 7 -18225073.592 7
  19118262.913   -15937444.756 7 -12349003.848 9
  20603146.952    -5663324.664 6  -4344945.963 7
  21312259.366   -14415116.692 6  -9090198.414 5
 95 10 22  1 48 29.9950000  0  6 14 28 18 29 22 19
  20038212.405     1492016.468 7   1180125.582 8
  23129282.405    -1954347.852 3  -1012052.535 2
  19726516.327   -23721125.565 7 -18301603.918 7
  19108185.140   -15990408.625 7 -12390274.389 9
  20609198.218    -5631524.773 6  -4320166.827 7
  21292288.913   -14520042.295 5  -9171958.610 5
 95 10 22  1 48 59.9950000  0  6 14 28 18 29 22 19
  20046311.554     1534566.213 7   1213281.208 8
  23108856.187    -2061722.684 3  -1095721.221 4
  19707867.679   -23819125.640 7 -18377967.602 7
  19098158.491   -16043095.810 7 -12431329.332 9
  20615326.327    -5599312.740 6  -4295066.535 7
  21272358.210   -14624790.223 5  -9253580.347 5
 95 10 22  1 49 29.9950000  0  6 14 28 18 29 22 19
  20054484.515     1577518.515 7   1246750.529 8
  23088451.694    -2168949.463 3  -1179274.517 3
  19689260.765   -23916903.301 7 -18454157.978 8
  19088184.085   -16095512.591 7 -12472173.577 9
  20621536.054    -5566687.074 6  -4269643.937 7
  21252460.429   -14729348.303 5  -9335054.150 5
 95 10 22  1 49 59.9950000  0  6 14 28 18 29 22 19
  20062732.749     1620874.151 7   1280534.127 8
  23068079.999    -2276025.188 3  -1262710.121 2
  19670699.679   -24014449.994 7 -18530168.381 7
  19078261.023   -16147658.939 7 -12512807.084 9
  20627821.304    -5533664.361 6  -4243911.942 7
  21232601.108   -14833696.860 5  -9416364.692 5
 95 10 22  1 50 29.9950000  0  6 14 28 18 29 22 19
  20071064.788     1664640.833 7   1314638.023 8
  23047718.929    -2382941.468 3  -1346021.477 3
  19652181.937   -24111756.614 7 -18605991.709 8
  19068390.140   -16199530.691 7 -12553226.629 9
  20634180.702    -5500235.156 6  -4217863.203 7
  21212792.733   -14937815.657 6  -9497496.194 5
 95 10 22  1 50 59.9950000  0  6 14 28 18 29 22 19
  20079465.062     1708795.515 7   1349044.257 8
  23027408.023    -2489704.041 4  -1429213.078 3
  19633709.983   -24208831.606 7 -18681634.549 8
  19058572.257   -16251126.669 7 -12593431.281 9
  20640619.413    -5466391.963 6  -4191491.878 7
  21193017.351   -15041718.992 5  -9578459.817 6
 95 10 22  1 51 29.9950000  0  6 14 28 18 29 22 19
  20087938.647     1753330.274 7   1383746.650 7
  23007125.765    -2596309.237 4  -1512282.054 3
  19615279.983   -24305679.179 7 -18757100.180 8
  19048807.062   -16302441.650 7 -12633416.971 9
  20647142.171    -5432133.703 6  -4164797.129 7
  21173285.694   -15145418.499 6  -9659264.598 5
 95 10 22  1 51 59.9950000  0  6 14 28 18 29 22 19
  20096486.937     1798244.427 7   1418744.679 7
  22986867.108    -2702753.681 4  -1595225.752 3
  19596894.163   -24402301.024 7 -18832389.913 8
  19039099.648   -16353452.696 7 -12673165.839 9
  20653738.194    -5397463.410 6  -4137781.315 7
  21153587.944   -15248925.856 6  -9739919.657 5
 95 10 22  1 52 29.9950000  0  6 14 28 18 29 22 19
  20105104.757     1843530.688 7   1454032.668 7
  22966641.702    -2809038.504 4  -1678045.095 3
  19578547.304   -24498708.115 7 -18907512.308 8
  19029454.062   -16404145.864 7 -12712666.997 9
  20660414.382    -5362369.893 6  -4110435.714 7
  21133918.460   -15352271.244 6  -9820448.514 5
 95 10 22  1 52 59.9950000  0  6 14 28 18 29 22 19
  20113789.733     1889177.580 7   1489601.652 7
  22946435.499    -2915158.999 4  -1760736.338 2
  19560239.163   -24594916.061 7 -18982479.528 8
  19019868.343   -16454516.723 7 -12751917.009 9
  20667174.976    -5326853.945 6  -4082760.949 7
  21114284.765   -15455454.846 6  -9900851.292 5
 95 10 22  1 53 29.9950000  0  6 14 28 18 29 22 19
  20122545.648     1935194.629 7   1525459.086 7
  22926282.671    -3021104.896 4  -1843291.566 3
  19541970.601   -24690923.177 7 -19057290.253 8
  19010344.616   -16504561.181 7 -12790912.684 9
  20674012.640    -5290910.958 6  -4054753.420 7
  21094687.491   -15558450.025 6  -9981107.252 5
 95 10 22  1 53 59.9950000  0  6 14 28 18 29 22 19
  20131372.030     1981566.566 7   1561593.047 7
  22906160.569    -3126888.937 5  -1925720.675 4
  19523739.054   -24786730.866 7 -19131945.578 8
  19000878.554   -16554299.614 7 -12829669.901 9
  20680936.382    -5254543.356 6  -4026415.021 7
  21075121.632   -15661256.827 6 -10061216.425 5
 95 10 22  1 54 29.9950000  0  6 14 28 18 29 22 19
  20140266.874     2028312.444 7   1598018.397 7
  22886064.085    -3232488.174 5  -2008005.767 2
  19505550.866   -24882306.663 7 -19206420.211 8
  18991472.812   -16603731.568 7 -12868188.305 9
  20687937.460    -5217731.909 6  -3997730.778 7
  21055601.241   -15763858.107 6 -10141165.445 6
 95 10 22  1 54 59.9940000  0  6 14 28 18 29 22 19
  20149230.518     2075422.810 6   1634727.764 7
  22866001.229    -3337911.109 5  -2090153.488 3
  19487407.541   -24977657.681 7 -19280719.697 8
  18982119.346   -16652885.200 7 -12906489.828 9
  20695022.955    -5180511.328 6  -3968727.723 7
  21036110.635   -15866259.795 6 -10220958.946 6
 95 10 22  1 55 29.9940000  0  6 14 28 18 29 22 19
  20158268.479     2122905.504 6   1671727.256 7
  22845970.096    -3443158.361 4  -2172164.322 1
  19469307.354   -25072768.648 7 -19354832.124 8
  18972820.635   -16701749.185 7 -12944565.654 9
  20702182.627    -5142887.900 6  -3939410.760 7
  21016659.525   -15968484.093 6 -10300614.217 6
 95 10 22  1 55 59.9940000  0  6 14 28 18 29 22 19
  20167376.143     2170758.702 6   1709015.447 7
  22825973.322    -3548213.809 4  -2254025.664 2
  19451256.658   -25167627.244 7 -19428747.900 8
  18963580.127   -16750306.802 7 -12982402.754 9
  20709416.916    -5104871.335 6  -3909787.455 7
  20997240.744   -16070525.666 6 -10380127.108 6
 95 10 22  1 56 29.9940000  0  6 14 28 18 29 22 19
  20176544.783     2218964.994 6   1746578.786 7
  22806025.697    -3653083.516 5  -2335742.307 2
  19433249.041   -25262259.953 7 -19502487.666 8
  18954399.486   -16798552.757 7 -13019996.997 9
  20716716.533    -5066500.346 6  -3879887.979 7
  20977853.986   -16172396.433 6 -10459506.893 6
 95 10 22  1 56 59.9940000  0  6 14 28 18 29 22 19
  20185786.940     2267514.289 6   1784409.391 7
  22786102.900    -3757764.068 5  -2417311.566 3
  19415280.580   -25356679.202 7 -19576061.088 8
  18945280.533   -16846474.433 7 -13057338.558 9
  20724085.705    -5027783.059 6  -3849718.660 7
  20958504.807   -16274085.276 6 -10538744.934 6
 95 10 22  1 57 29.9940000  0  6 14 28 18 29 22 19
  20195089.166     2316392.215 6   1822496.070 7
  22766220.807    -3862247.871 4  -2498727.481 2
  19397356.815   -25450870.712 7 -19649457.063 8
  18936224.229   -16894067.759 7 -13094424.260 9
  20731520.135    -4988713.948 6  -3819275.198 7
  20939193.729   -16375577.289 6 -10617829.602 6
 95 10 22  1 57 59.9940000  0  6 14 28 18 29 22 19
  20204453.057     2365610.683 6   1860848.110 7
  22746376.596    -3966524.535 4  -2579982.023 1
  19379482.760   -25544805.165 7 -19722652.730 8
  18927228.986   -16941337.288 7 -13131257.653 9
  20739026.322    -4949279.746 6  -3788547.238 7
  20919919.924   -16476849.285 6 -10696742.828 6
 95 10 22  1 58 29.9940000  0  6 14 28 18 29 22 19
  20213883.471     2415164.535 6   1899461.491 7
  22726567.150    -4070604.769 4  -2661083.463 2
  19361657.479   -25638475.087 7 -19795642.268 8
  18918291.135   -16988309.101 7 -13167859.060 9
  20746597.150    -4909480.953 6  -3757535.189 7
  20900683.908   -16577933.421 6 -10775509.672 6
 95 10 22  1 58 59.9940000  0  6 14 28 18 29 22 19
  20223377.065     2465061.361 6   1938342.123 7
  22706792.916    -4174478.367 3  -2742023.936 2
  19343888.885   -25731851.074 7 -19868402.769 8
  18909407.447   -17034992.924 7 -13204236.057 9
  20754248.127    -4869285.594 6  -3726214.120 7
  20881486.979   -16678824.849 6 -10854126.344 6
 95 10 22  1 59 29.9940000  0  6 14 28 18 29 22 19
  20232940.096     2515308.165 6   1977495.460 7
  22687078.744    -4278146.441 3  -2822804.232 2
  19326177.025   -25824931.081 7 -19940932.636 8
  18900576.408   -17081400.084 7 -13240397.479 9
  20761973.416    -4828693.594 6  -3694583.989 7
  20862323.182   -16779524.146 6 -10932593.323 6
 95 10 22  1 59 59.9940000  0  7 14 28 18 29 27 22 19
  20242572.830     2565927.828 6   2016939.344 7
  22667395.611    -4381605.763 4  -2903421.853 2
  19308517.893   -25917733.491 7 -20013246.190 8
  18891799.580   -17127528.404 7 -13276341.612 9
  23428752.322          -0.31913
  20769775.947    -4787695.061 6  -3662637.076 6
  20843195.330   -16880041.787 6 -11010918.745 6
 95 10 22  2  0 29.9940000  0  7 14 28 18 29 27 22 19
  20252277.908     2616922.709 6   2056675.603 7
  22647754.369    -4484849.423 4  -2983871.433 3
  19290907.533   -26010287.063 7 -20085365.841 8
  18883081.190   -17173358.611 7 -13312053.451 9
  23406003.369     -119589.281 3
  20777656.018    -4746285.860 6  -3630370.162 6
  20824105.596   -16980379.439 6 -11089103.911 6
 95 10 22  2  0 59.9940000  0  7 14 28 18 29 27 22 19
  20262054.190     2668280.928 6   2096694.965 7
  22628136.330    -4587878.919 3
  19273338.947   -26102618.738 7 -20157312.603 8
  18874419.650   -17218871.723 7 -13347518.222 9
  23383258.244     -239100.142 3
  20785613.260    -4704483.633 6  -3597797.003 6
  20805048.166   -17080513.254 6 -11167130.253 6
 95 10 22  2  1 29.9940000  0  7 14 28 18 29 27 22 19
  20271904.033     2719995.615 6   2136992.321 7
  22608579.252          -0.58013
  19255816.674   -26194748.591 7 -20229101.884 8
  18865833.268   -17264048.877 7 -13382720.991 9
  23360535.682     -358551.291 3        -0.17411
  20793646.572    -4662314.280 6  -3564937.553 6
  20786042.424   -17180448.504 6 -11245001.659 6
 95 10 22  2  1 59.9940000  0  7 14 28 18 29 27 22 19
  20281812.166     2772060.436 6   2177562.284 7
  22589057.713     -102593.136 3
  19238327.713   -26286655.155 7 -20300717.392 8
  18857305.408   -17308859.641 7 -13417638.477 9
  23337817.721     -477936.282 3    -93027.360 1
  20801741.932    -4619773.627 6  -3531789.016 6
  20767062.057   -17280192.041 6 -11322723.893 6
 95 10 22  2  2 29.9940000  0  7 14 28 18 29 27 22 19
  20291779.791     2824442.943 6   2218379.808 7
  22569583.916     -204959.013 4        -0.15812
  19220881.369   -26378329.395 7 -20372151.854 8
  18848850.096   -17353290.879 7 -13452260.211 9
  23315115.057     -597257.349 3   -186004.701 1
  20809904.236    -4576879.382 6  -3498364.922 6
  20748121.041   -17379739.299 6 -11400293.173 6
 95 10 22  2  2 59.9940000  0  7 14 28 18 29 27 22 19
  20301804.705     2877116.593 6   2259424.202 7
  22550151.900     -307104.054 4    -79593.683 4
  19203480.400   -26469768.535 7 -20443403.119 8
  18840465.104   -17397362.784 7 -13486601.952 9
  23292410.330     -716523.708 3   -278939.469 1
  20818128.072    -4533655.286 6  -3464683.805 7
  20729215.682   -17479096.896 6 -11477714.655 6
 95 10 22  2  3 29.9940000  0  7 14 28 18 29 27 22 19
  20311886.502     2930093.523 6   2300704.917 7
  22530748.072     -409009.664 3   -159000.641 4
  19186129.830   -26560943.209 7 -20514448.304 8
  18832145.752   -17441081.576 7 -13520668.537 9
  23269729.752     -835712.648 3   -371813.893 2
  20826420.025    -4490081.471 6  -3430730.182 6
  20710343.041   -17578270.177 6 -11554992.513 6
 95 10 22  2  3 59.9940000  0  7 14 28 18 29 27 22 19
  20322020.432     2983354.505 6   2342206.965 7
  22511410.674     -510688.015 4   -238230.487 4
  19168830.221   -26651862.685 7 -20585294.636 8
  18823885.947   -17484479.585 7 -13554485.162 9
  23247065.861     -954826.970 2   -464630.155 1
  20834774.088    -4446168.110 6  -3396511.970 6
  20691498.502   -17677276.675 6 -11632140.405 6
 95 10 22  2  4 29.9940000  0  7 14 28 18 29 27 22 19
  20332213.744     3036908.915 6   2383937.666 7
  22492106.916     -612123.498 4   -317271.134 4
  19151578.174   -26742524.836 7 -20655940.457 8
  18815686.744   -17527564.490 7 -13588057.809 9
  23224412.932    -1073868.873 3   -557390.053 2
  20843195.947    -4401913.603 6  -3362027.936 6
  20672697.502   -17776089.392 6 -11709137.287 6
 95 10 22  2  4 59.9940000  0  7 14 28 18 29 27 22 19
  20342462.236     3090755.683 6   2425896.177 7
  22472841.432     -713327.501 4   -396131.359 4
  19134373.119   -26832933.532 7 -20726388.777 8
  18807541.705   -17570365.994 7 -13621409.629 9
  23201777.900    -1192844.997 3   -650098.668 2
  20851681.416    -4357330.839 6  -3327288.117 6
  20653927.760   -17874727.438 6 -11785998.074 6
 95 10 22  2  5 29.9940000  0  8 14 28 18 29 27 22 19 31
  20352764.283     3144912.401 6   2468096.199 7
  22453633.916     -814290.319 4   -474803.665 4
  19117220.471   -26923073.803 7 -20796627.930 8
  18799454.541   -17612865.461 7 -13654526.084 9
  23179145.229    -1311743.671 3   -742746.939 2
  20860228.807    -4312406.139 6  -3292281.857 6
  20635187.557   -17973188.014 6 -11862720.568 6
  22769164.315          -0.46515
 95 10 22  2  5 59.9940000  0  8 14 28 18 29 27 22 19 31
  20363125.846     3199376.717 6   2510535.914 7
  22434462.799     -915009.059 4   -553285.761 4
  19100119.822   -27012938.979 7 -20866652.731 8
  18791429.135   -17655043.703 7 -13687392.249 9
  23156532.361          -0.10813
  20868843.174    -4267152.245 6  -3257019.079 6
  20616493.275   -18071457.089 6 -11939293.840 6
  22744989.799     -127031.109 4
 95 10 22  2  6 29.9940000  0  8 14 28 18 29 27 22 19 31
  20373551.096     3254152.784 6   2553218.556 7
  22415346.830    -1015478.520 4   -631573.615 4
  19083073.690   -27102518.929 7 -20936455.274 8
  18783465.682   -17696888.329 7 -13719998.445 9
  23133936.268     -118752.893 3        -0.31112
  20877515.377    -4221573.950 6  -3221503.522 6
  20597826.494   -18169527.636 6 -12015712.411 6
  22720811.072     -254115.735 5
 95 10 22  2  6 59.9940000  0  8 14 28 18 29 27 22 19 31
  20384035.471     3309249.286 6   2596150.884 7
  22396268.533    -1115690.802 4   -709661.089 5
  19066083.822   -27191798.807 7 -21006024.000 8
  18775570.041   -17738384.438 7 -13752333.073 9
  23111358.932     -237403.629 3    -92455.414 3
  20886255.690    -4175654.509 6  -3185722.132 6
  20579207.502   -18267396.280 6 -12091973.662 6
  22696615.674     -381226.958 3        -0.15411
 95 10 22  2  7 29.9940000  0  8 14 28 18 29 27 22 19 31
  20394581.869     3364654.498 6   2639323.765 7
  22377258.166    -1215653.377 4   -787553.989 5
  19049149.119   -27280795.160 7 -21075371.793 8
  18767739.096   -17779531.366 7 -13784395.608 9
  23088797.143     -355966.804 3   -184842.299 3
  20895054.221    -4129406.368 6  -3149684.620 6
  20560616.275   -18365064.447 6 -12168078.696 6
  22672427.502     -508355.640 3    -99061.418 1
 95 10 22  2  7 59.9940000  0  8 14 28 18 29 27 22 19 31
  20405182.893     3420369.018 6   2682737.670 6
  22358286.760    -1315357.123 5   -865245.212 5
  19032267.229   -27369505.749 7 -21144496.915 8
  18759975.440   -17820328.592 7 -13816185.649 9
  23066255.549     -474438.131 3   -277157.604 1
  20903916.361    -4082823.616 6  -3113386.364 6
  20542072.885   -18462521.137 6 -12244018.946 6
  22648233.814     -635479.222 4   -198118.742 1
 95 10 22  2  8 29.9940000  0  8 14 28 18 29 27 22 19 31
  20415839.565     3476382.221 6   2726384.312 6
  22339355.307    -1414804.472 5   -942736.615 5
  19015437.705   -27457940.019 7 -21213406.723 8
  18752274.354   -17860800.700 7 -13847722.350 9
  23043724.471     -592821.700 3   -369404.537 2
  20912847.033    -4035903.410 6  -3076825.158 6
  20523569.166   -18559782.338 6 -12319806.863 6
  22624048.666     -762609.737 3   -297181.453 1
 95 10 22  2  8 59.9940000  0  8 14 28 18 29 27 22 19 31
  20426554.572     3532687.236 6   2770258.337 6
  22320481.408    -1513991.407 5  -1020025.129 5
  18998661.049   -27546102.810 7 -21282104.986 8
  18744634.174   -17900954.137 7 -13879010.738 9
  23021217.400     -711129.434 3   -461592.338 2
  20921844.932    -3988642.233 6  -3039998.257 6
  20505094.330   -18656853.832 6 -12395446.965 6
  22599838.244     -889760.907 2   -396260.273 1
 95 10 22  2  9 29.9940000  0  8 14 28 18 29 27 22 19 31
  20437319.291     3589280.182 6   2814356.724 6
  22301658.955    -1612913.107 5  -1097106.939 5
  18981935.088   -27633999.879 7 -21350596.195 8
  18737054.713   -17940783.601 7 -13910046.681 9
  22998704.221     -829385.276 3   -553739.737 3
  20930899.932    -3941041.586 6  -3002906.844 6
  20486653.400   -18753750.415 6 -12470950.771 6
  22575643.986    -1016941.247 2   -495361.805 1
 95 10 22  2  9 59.9940000  0  8 14 28 18 29 27 22 19 31
  20448143.025     3646151.390 6   2858671.946 6
  22282883.080    -1711570.772 5  -1173983.022 5
  18965261.322   -27721630.293 7 -21418879.624 8
  18729535.135   -17980298.249 7 -13940837.316 9
  22976214.416     -947601.732 3   -645856.432 1
  20940018.908    -3893109.160 6  -2965556.908 6
  20468244.299   -18850488.290 6 -12546330.905 6
  22551432.080    -1144173.701 3   -594503.929 2
 95 10 22  2 10 29.9940000  0  8 14 28 18 29 27 22 19 31
  20459022.643     3703290.299 6   2903195.754 6
  22264159.690    -1809962.199 5  -1250651.637 5
  18948637.439   -27808990.101 7 -21486952.193 8
  18722078.025   -18019487.333 7 -13971374.259 9
  22953725.690    -1065785.614 3   -737947.727 2
  20949205.455    -3844855.322 6  -2927956.504 6
  20449863.736   -18947080.495 6 -12621597.536 6
  22527212.994    -1271465.856 3   -693692.591 1
 95 10 22  2 10 59.9940000  0  8 14 28 18 29 27 22 19 31
  20469939.369     3760690.291 6   2947923.012 6
  22245488.400    -1908085.996 5  -1327111.721 5
  18932063.807   -27896082.991 7 -21554816.768 9
  18714686.650   -18058329.228 7 -14001640.674 9
  22931235.400    -1183933.747 3   -830011.170 2
  20958446.440    -3796292.744 6  -2890115.528 6
  20431511.330   -19043528.498 6 -12696751.804 6
  22502982.041    -1398808.349 3   -792920.475 2
 95 10 22  2 11 29.9940000  0  8 14 28 18 29 27 22 19 31
  20480916.815     3818369.507 6   2992867.845 6
  22226872.299    -2005925.671 5  -1403350.398 5
  18915545.065   -27982886.875 7 -21622456.149 9
  18707365.807   -18096799.146 7 -14031617.227 9
  22908773.494    -1302019.259 4   -922025.831 2
  20967742.838    -3747415.966 6  -2852029.729 6
  20413188.525   -19139811.916 6 -12771777.822 6
  22478738.221    -1526182.511 2   -892173.008 2
 95 10 22  2 11 59.9940000  0  8 14 28 18 29 27 22 19 31
  20491945.315     3876319.783 6   3038023.893 6
  22208305.057    -2103482.595 5  -1479368.762 5
  18899079.799   -28069399.979 7 -21689868.945 9
  18700113.533   -18134903.127 7 -14061308.640 9
  22886312.822    -1420017.224 4  -1013972.275 2
  20977100.690    -3698246.457 6  -2813715.821 6
  20394901.557   -19235917.764 6 -12846665.475 6
  22454496.221    -1653581.588 3   -991444.992 2
 95 10 22  2 12 29.9940000  0  8 14 28 18 29 27 22 19 31
  20503024.807     3934539.250 6   3083389.695 6
  22189797.268    -2200751.763 4  -1555162.876 5
  18882675.033   -28155614.199 7 -21757048.844 9
  18692933.768   -18172634.688 7 -14090709.857 9
  22863886.908    -1537911.105 4  -1105837.593 2
  20986514.432    -3648786.212 6  -2775175.366 6
  20376648.533   -19331823.574 6 -12921397.247 6
  22430252.072    -1780980.831 3  -1090717.087 3
 95 10 22  2 12 59.9940000  0  8 14 28 18 29 27 22 19 31
  20514152.432     3993037.447 6   3128972.702 6
  22171337.268    -2297737.185 5  -1630735.906 5
  18866328.166   -28241525.314 7 -21823992.555 9
  18685821.002   -18210017.531 7 -14119839.343 9
  22841469.971    -1655699.682 5  -1197620.867 1
  20995982.869    -3599043.026 6  -2736414.450 6
  20358439.174   -19427519.980 6 -12995965.864 6
  22406009.775    -1908381.633 3  -1189990.404 2
 95 10 22  2 13 29.9940000  0  8 14 28 18 29 27 22 19 31
  20525343.463     4051823.436 6   3174779.961 6
  22152939.002    -2394436.299 5  -1706085.843 5
  18850036.502   -28327129.248 7 -21890696.911 9
  18678772.690   -18247055.233 7 -14148699.891 9
  22819074.721    -1773391.945 5  -1289329.096 1
  21005499.533    -3549007.421 6  -2697425.662 6
  20340272.385   -19522999.134 6 -13070365.185 6
  22381773.541    -2035775.164 3  -1289258.050 1
 95 10 22  2 13 59.9940000  0  8 14 28 18 29 27 22 19 31
  20536582.510     4110893.159 6   3220808.303 6
  22134597.494    -2490844.544 5  -1781209.124 5
  18833805.869   -28412427.400 7 -21957162.995 9
  18671790.166   -18283751.198 7 -14177294.150 9
  22796687.221    -1891000.826 4  -1380972.345 4
  21015081.158    -3498673.487 6  -2658204.419 6
  20322141.729   -19618258.318 6 -13144593.106 6
  22357532.018    -2163152.181 3  -1388512.833 2
 95 10 22  2 14 29.9940000  0  8 14 28 18 29 27 22 19 31
  20547876.322     4170239.003 6   3267051.810 6
  22116296.119    -2586964.308 5  -1856107.616 5
  18817630.861   -28497418.871 7 -22023390.105 9
  18664870.619   -18320107.482 7 -14205623.715 9
  22774320.861    -2008555.698 5  -1472573.512 2
  21024711.494    -3448044.252 6  -2618753.064 6
  20304057.557   -19713311.469 6 -13218660.474 6
  22333286.221    -2290524.316 3  -1487763.801 3
 95 10 22  2 14 59.9930000  0  8 14 28 18 29 27 22 19 31
  20559221.817     4229858.399 6   3313508.475 6
  22098073.427    -2682779.491 5  -1930768.768 5
  18801518.036   -28582096.377 7 -22089372.576 9
  18658021.411   -18356107.418 7 -14233675.612 9
  22751963.974    -2126057.036 4  -1564132.925 2
  21034405.349    -3397114.920 6  -2579067.867 6
  20286005.997   -19808158.539 6 -13292567.267 6
  22309051.310    -2417889.393 3  -1587009.282 2
 95 10 22  2 15 29.9930000  0  8 14 28 18 29 27 22 19 31
  20570614.685     4289722.282 6   3360155.645 6
  22079890.771    -2778301.773 5  -2005201.683 5
  18785460.497   -28666486.685 7 -22155131.245 9
  18651238.622   -18391747.328 7 -14261446.969 9
  22729611.052    -2243524.148 4  -1655665.719 3
  21044149.435    -3345897.166 6  -2539157.936 6
  20267991.591   -19902826.662 6 -13366334.612 6
  22284814.708    -2545264.610 3  -1686262.651 2
 95 10 22  2 15 59.9930000  0  8 14 28 18 29 27 22 19 31
  20582044.028     4349809.563 6   3406976.898 6
  22061772.481    -2873522.276 5  -2079399.455 4
  18769456.513   -28750580.993 7 -22220659.272 9
  18644523.567   -18427032.322 7 -14288941.772 9
  22707267.036    -2360937.969 4  -1747156.950 2
  21053948.544    -3294412.179 6  -2499039.763 6
  20250016.083   -19997308.676 6 -13439956.937 6
  22260569.325    -2672651.410 3  -1785525.073 2
 95 10 22  2 16 29.9930000  0  8 14 28 18 29 27 22 19 31
  20593521.435     4410107.536 6   3453962.324 6
  22043712.575    -2968440.793 5  -2153361.915 5
  18753510.903   -28834375.552 7 -22285953.727 9
  18637876.724   -18461968.887 7 -14316165.069 9
  22684933.185    -2478289.757 3  -1838599.849 2
  21063796.286    -3242664.239 6  -2458716.697 6
  20232071.099   -20091604.223 6 -13513433.964 6
  22236332.653    -2800053.506 4  -1884799.394 2
 95 10 22  2 16 59.9930000  0  8 14 28 18 29 27 22 19 31
  20605036.341     4470621.232 6   3501115.847 6
  22025706.669    -3063050.906 5  -2227084.075 5
  18737622.161   -28917873.185 7 -22351016.808 9
  18631294.771   -18496558.341 7 -14343117.890 9
  22662619.380    -2595564.110 3  -1929982.417 1
  21073694.833    -3190634.161 6  -2418173.777 6
  20214161.419   -20185711.490 6 -13586764.273 6
  22212089.974    -2927454.708 4  -1984073.018 2
 95 10 22  2 17 29.9930000  0  8 14 28 18 29 27 22 19 31
  20616591.060     4531349.463 6   3548436.537 6
  22007760.864    -3157356.751 5  -2300569.127 4
  18721788.919   -29001080.315 7 -22415853.526 9
  18624775.356   -18530811.576 7 -14369808.722 9
  22640316.685    -2712755.797 4  -2021300.569 2
  21083649.474    -3138318.498 6  -2377408.320 6
  20196287.208   -20279645.213 6 -13659959.356 6
  22187851.630    -3054840.959 5  -2083335.002 2
 95 10 22  2 17 59.9930000  0  8 14 28 18 29 27 22 19 31
  20628192.083     4592305.305 6   3595934.588 6
  21989876.021    -3251352.951 5
  18706015.200   -29083973.206 7 -22480445.384 9
  18618321.231   -18564731.876 7 -14396240.125 9
  22618034.302    -2829856.880 3  -2112548.141 2
  21093667.200    -3085710.602 6  -2336415.155 6
  20178448.114   -20373390.318 6
  22163608.333    -3182211.400 4  -2182584.681 1
 95 10 22  2 18 29.9930000  0  7 14 28 18 29 27 22 31
  20639837.575     4653510.803 6   3643627.168 6
  21972052.411    -3345034.164 5  -2446811.226 5
  18690300.880   -29166541.275 7 -22544784.134 8
  18611932.911   -18598299.511 7 -14422396.726 9
  22595762.021    -2946867.322 3  -2203725.030 1
  21103727.942    -3032797.019 6  -2295183.793 6
  22139372.692    -3309566.598 4  -2281822.478 2
 95 10 22  2 18 59.9930000  0  8 14 28 18 29 27 22 19 31
  20651530.560     4714967.217 6   3691515.279 6
  21954286.216    -3438399.680 5
  18674651.481   -29248779.829 7 -22608866.116 9
  18605614.927   -18631502.935 7 -14448269.523 9
  22573521.731    -3063784.399 3  -2294829.195 2
  21113855.380    -2979601.649 6  -2253732.862 6
  20142864.833          -0.10316
  22115146.903    -3436894.315 4  -2381038.882 2
 95 10 22  2 19 29.9930000  0  8 14 28 18 29 27 22 19 31
  20663272.981     4776675.377 6   3739599.550 6
  21936573.536    -3531444.247 5  -2592065.795 5
  18659069.356   -29330674.530 7 -22672680.164 9
  18599368.192   -18664331.357 7 -14473850.108 9
  22551287.528    -3180606.968 3  -2385859.743 1
  21124032.255    -2926149.990 6  -2212082.222 6
  20125120.067      -93237.743 6 -13859128.495 6
  22090916.685    -3564194.959 4  -2480234.167 2
 95 10 22  2 19 59.9930000  0  8 14 28 18 29 27 22 19 31
  20675068.935     4838632.829 6   3787878.071 6
  21918931.778    -3624162.461 5  -2664313.726 5
  18643551.005   -29412216.389 7 -22736219.270 9
  18593193.896   -18696774.271 7 -14499130.303 9
  22529076.099    -3297343.699 4  -2476823.376 2
  21134246.013    -2872456.220 6  -2170242.911 6
  20107418.700     -186281.008 6 -13931629.711 6
  22066704.708    -3691477.236 5  -2579415.116 1
 95 10 22  2 20 29.9930000  0  8 14 28 18 29 27 22 19 31
  20686908.567     4900832.879 6   3836345.631 6
  21901347.028    -3716546.324 5  -2736301.124 4
  18628100.513   -29493422.929 7 -22799497.086 9
  18587095.263   -18728825.622 7 -14524105.380 9
  22506861.231    -3414008.069 3  -2567730.642 2
  21144508.185    -2818522.607 6  -2128216.722 6
  20089744.731     -279135.829 6 -14003984.084 6
  22042489.255    -3818716.600 4  -2678562.654 2
 95 10 22  2 20 59.9930000  0  8 14 28 18 29 27 22 19 31
  20698780.052     4963246.209 6   3884979.384 6
  21883828.442    -3808604.811 5  -2808034.975 5
  18612702.231   -29574325.833 7 -22862538.300 9
  18581065.599   -18760513.609 7 -14548797.321 9
  22484679.942    -3530621.463 3  -2658598.195 1
  21154813.083    -2764364.964 6  -2086015.952 6
  20072114.153     -371795.282 6 -14076186.229 6
  22018279.013    -3945908.025 3  -2777672.846 1
 95 10 22  2 21 29.9930000  0  7 14 28 18 29 27 22 31
  20710698.544     5025865.746 6   3933773.821 6
  21866372.638    -3900330.006 5  -2879509.131 5
  18597363.474   -29654926.949 7 -22925344.361 8
  18575105.489   -18791838.323 7 -14573206.184 9
  22462497.146    -3647193.807 3  -2749433.752 2
  21165159.763    -2709957.715 6  -2043620.696 6
  21994089.856    -4073055.491 4  -2876748.776 1
 95 10 22  2 21 59.9930000  0  8 14 28 18 29 27 22 19 31
  20722651.388     5088678.045 6   3982718.459 6
  21848985.060    -3991724.817 5  -2950725.829 5
  18582084.466   -29735234.488 7 -22987921.658 8
  18569211.505   -18822806.504 7 -14597337.243 8
  22440323.810    -3763729.871 3  -2840241.064 4
  21175563.841    -2655297.499 6  -2001028.313 6
  20036967.427          -0.03516
  21969899.403    -4200166.921 4  -2975796.619 1
 95 10 22  2 22 29.9930000  0  8 14 28 18 29 27 22 19 31
  20734640.146     5151693.596 6   4031821.469 6
  21831656.255    -4082782.359 5  -3021679.746 5
  18566860.333   -29815240.444 7 -23050263.955 8
  18563385.192   -18853418.223 7 -14621190.519 9
  22418166.138    -3880210.060 4  -2931004.800 3
  21186016.521    -2600375.875 6  -1958232.240 6
  20019441.028      -92082.079 6        -0.12116
  21945718.661    -4327232.175 4  -3074808.490 2
 95 10 22  2 22 59.9930000  0  8 14 28 18 29 27 22 19 31
  20746679.513     5214928.059 6   4081095.061 6
  21814397.669    -4173493.758 5  -3092363.930 5
  18551699.653   -29894909.498 7 -23112343.738 9
  18557632.731   -18883650.964 7 -14644748.510 9
  22396003.935    -3996604.007 4  -3021701.341 2
  21196518.419    -2545187.529 6  -1915228.330 6
  20001953.216     -183983.149 6    -71611.312 6
  21921548.622    -4454247.555 4  -3173781.487 2
 95 10 22  2 23 29.9930000  0  8 14 28 18 29 27 22 19 31
  20758749.263     5278380.217 6   4130538.298 6
  21797199.763    -4263860.045 5  -3162779.194 5
  18536606.903   -29974222.014 7 -23174145.688 8
  18551952.341   -18913503.644 7 -14668010.334 9
  22373874.528    -4112900.038 4  -3112321.608 3
  21207069.724    -2489734.659 6  -1872018.302 6
  19984497.638     -275713.727 6   -143089.665 6
  21897390.560    -4581221.699 4  -3272722.338 3
 95 10 22  2 23 59.9930000  0  8 14 28 18 29 27 22 19 31
  20770861.114     5342067.145 5   4180164.462 6
  21780068.935    -4353872.772 5  -3232918.956 5
  18521583.169   -30053170.826 7 -23235664.238 8
  18546345.192   -18942967.931 7 -14690969.522 9
  22351770.974    -4229081.625 5  -3202852.681 3
  21217672.411    -2434031.878 6  -1828613.529 6
  19967076.997     -367268.526 6   -214431.045 6
  21873228.466    -4708138.694 3  -3371618.675 2
 95 10 22  2 24 29.9930000  0  8 14 28 18 29 27 22 19 31
  20783021.849     5405972.410 6   4229960.764 6
  21763002.146    -4443540.192 5  -3302789.661 5
  18506623.739   -30131772.632 7 -23296912.393 8
  18540807.927   -18972064.924 7 -14713642.510 9
  22329677.192    -4345162.776 5  -3293305.492 4
  21228312.599    -2378097.497 6  -1785028.307 6
  19949691.138     -458652.198 6   -285639.083 6
  21849092.724    -4834991.524 4  -3470465.050 1
 95 10 22  2 24 59.9930000  0  8 14 28 18 29 27 22 19 31
  20795225.911     5470077.866 6   4279913.055 5
  21746003.185    -4532856.949 5  -3372387.105 5
  18491732.489   -30210038.333 7 -23357898.646 8
  18535339.560   -19000798.545 7 -14736032.336 9
  22307603.302    -4461157.106 5  -3383690.628 4
  21239003.872    -2321943.051 6  -1741271.589 6
  19932333.177     -549843.270 6   -356697.039 6
  21824968.966    -4961767.050 4  -3569251.143 3
 95 10 22  2 25 29.9930000  0  8 14 28 18 29 27 22 19 31
  20807462.794     5534365.509 6   4330007.315 6
  21729083.114    -4621825.341 5  -3441713.096 5
  18476896.896   -30287994.383 7 -23418643.616 8
  18529936.950   -19029192.332 7 -14758157.365 9
  22285542.692    -4577089.977 5  -3474027.898 4
  21249735.708    -2265574.896 6  -1697348.359 6
  19915019.622     -640836.206 6   -427600.618 6
  21800862.653    -5088477.751 4  -3667986.736 2
 95 10 22  2 25 59.9930000  0  8 14 28 18 29 27 22 19 31
  20819731.278     5598856.462 6   4380259.999 5
  21712221.138    -4710421.803 5  -3510749.284 5
  18462124.372   -30365628.189 7 -23479137.483 8
  18524602.505   -19057225.003 7 -14780001.006 9
  22263494.708    -4692951.402 5  -3564309.476 4
  21260492.536    -2208982.134 5  -1653250.107 6
  19897742.310     -731615.629 6   -498337.815 6
  21776760.435    -5215094.717 4  -3766649.268 1
 95 10 22  2 26 29.9930000  0  8 14 28 18 29 27 22 19 31
  20832039.200     5663510.203 6   4430639.528 6
  21695425.888    -4798671.551 5  -3579515.304 5
  18447405.489   -30442966.093 7 -23539400.777 8
  18519330.692   -19084927.803 7 -14801587.607 9
  22241461.177    -4808768.649 5  -3654556.634 3
  21271307.419    -2152177.416 5  -1608986.682 6
  19880504.786     -822214.503 6   -568934.321 6
  21752680.856    -5341644.193 4  -3865259.235 3
 95 10 22  2 26 59.9930000  0  8 14 28 18 29 27 22 19 31
  20844371.661     5728351.475 5   4481165.186 6
  21678706.216    -4886551.821 5  -3647993.416 3
  18432755.067   -30519966.912 7 -23599401.414 8
  18514129.325   -19112257.331 7 -14822883.339 9
  22219438.505    -4924510.985 5  -3744745.427 3
  21282168.263    -2095130.451 6  -1564534.506 6
  19863300.755     -912612.404 6   -639374.228 6
  21728620.896    -5468120.951 5  -3963812.536 2
 95 10 22  2 27 29.9930000  0  8 14 28 18 29 27 22 19 31
  20856752.325     5793386.416 5   4531841.759 5
  21662055.989    -4974062.034 5  -3716183.171 5
  18418170.388   -30596608.480 7 -23659122.114 8
  18509004.380   -19139193.418 7 -14843872.500 9
  22197414.419    -5040160.820 4  -3834862.119 4
  21293064.528    -2037829.143 5  -1519884.139 6
  19846132.630    -1002829.670 6   -709673.388 6
  21704566.192    -5594532.622 5  -4062315.128 3
 95 10 22  2 27 59.9930000  0  8 14 28 18 29 27 22 19 31
  20869160.497     5858603.911 5   4582660.563 6
  21645473.169    -5061205.515 5  -3784087.176 5
  18403653.981   -30672888.455 7 -23718561.050 8
  18503955.810   -19165723.281 7 -14864545.120 9
  22175437.481    -5155710.094 5  -3924900.477 4
  21304023.466    -1980287.406 6  -1475046.420 6
  19828995.263    -1092883.876 6   -779845.478 6
  21680518.442    -5720866.703 5  -4160757.257 3
 95 10 22  2 28 29.9930000  0  8 14 28 18 29 27 22 19 31
  20881602.942     5923983.498 5   4633605.688 6
  21628955.099    -5147985.707 5  -3851708.089 5
  18389208.583   -30748806.927 7 -23777718.298 8
  18498985.942   -19191839.797 7 -14884895.655 9
  22153466.372    -5271164.996 5  -4014865.296 4
  21315019.591    -1922507.755 6  -1430023.320 6
  19811889.653    -1182773.579 6   -849889.391 6
  21656490.950    -5847132.219 5  -4259145.948 5
 95 10 22  2 28 59.9930000  0  8 14 28 18 29 27 22 19 31
  20894079.802     5989533.823 6   4684683.852 5
  21612513.552    -5234392.101 5  -3919037.732 5
  18374831.341   -30824352.393 7 -23836584.893 8
  18494095.716   -19217535.969 7 -14904918.650 9
  22131507.067    -5386527.787 5  -4104758.334 3
  21326054.497    -1864501.658 5  -1384823.754 6
  19794821.497    -1272483.956 6   -919793.567 7
  21632477.177    -5973323.737 5  -4357476.973 3
 95 10 22  2 29 29.9930000  0  8 14 28 18 29 27 22 19 31
  20906583.435     6055249.372 5   4735890.754 5
  21596144.966    -5320416.180 5  -3986069.467 5
  18360521.474   -30899541.811 7 -23895174.040 8
  18489283.036   -19242828.813 7 -14924627.355 9
  22109571.974    -5501807.921 4  -4194586.986 2
  21337118.091    -1806284.726 5  -1339459.928 6
  19777784.919    -1362010.553 6   -989554.527 6
  21608481.903    -6099413.003 5  -4455728.338 3
 95 10 22  2 29 59.9930000  0  8 14 28 18 29 27 22 19 31
  20919114.622     6121111.271 5   4787211.695 6
  21579851.966    -5406063.865 5  -4052807.910 4
  18346281.177   -30974392.066 7 -23953498.922 8
  18484539.521   -19267755.529 7 -14944050.772 9
  22087656.021    -5617033.022 5  -4284372.753 2
  21348241.075    -1747872.821 5  -1293944.152 6
  19760779.528    -1451358.498 6  -1059176.281 7
  21584508.466    -6225392.737 5  -4553894.345 4
 95 10 22  2 30 29.9930000  0  8 14 28 18 29 27 22 19 31
  20931677.849     6187127.209 5   4838652.671 5
  21563616.302    -5491329.522 5  -4119248.672 4
  18332099.403   -31048898.774 7 -24011556.094 8
  18479862.435   -19292336.847 7 -14963205.052 9
  22065744.138    -5732210.712 5  -4374121.578 3
  21359395.661    -1689261.570 5  -1248273.047 6
  19743817.771    -1540516.997 6  -1128650.417 7
  21560563.935    -6351270.688 5  -4651981.041 3
 95 10 22  2 30 59.9930000  0  8 14 28 18 29 27 22 19 31
  20944272.974     6253302.208 6   4890217.597 5
  21547465.989    -5576211.882 5  -4185390.761 5
  18317989.239   -31123067.552 7 -24069349.941 8
  18475249.669   -19316573.351 7 -14982090.637 9
  22043804.169    -5847347.553 3  -4463838.586 2
  21370581.911    -1630466.196 5  -1202458.462 6
  19726879.950    -1629500.882 6  -1197988.485 7
  21536618.989    -6477036.926 5  -4749980.695 3
 95 10 22  2 31 29.9930000  0  8 14 28 18 29 27 22 19 31
  20956890.802     6319625.408 5   4941897.994 5
  21531387.349    -5660714.677 5  -4251237.079 4
  18303937.849   -31196892.979 7 -24126876.246 8
  18470704.192   -19340459.370 7 -15000703.122 9
  22021925.630    -5962449.686 5  -4553528.546 2
  21381807.747    -1571479.536 5  -1156494.845 6
  19709978.536    -1718318.243 6  -1267196.802 6
  21512714.239    -6602680.959 5  -4847885.108 2
 95 10 22  2 31 59.9930000  0  8 14 28 18 29 27 22 19 31
  20969546.427     6386113.062 6   4993706.548 5
  21515379.700    -5744830.420 5  -4316781.798 5
  18289958.364   -31270350.035 7 -24184115.506 8
  18466231.599   -19363964.072 7 -15019018.480 9
  22000027.302    -6077504.750 4  -4643181.828 3
  21393072.685    -1512282.012 5  -1110366.913 5
  19693113.138    -1806957.995 6  -1336266.714 6
  21488822.739    -6728211.998 5  -4945701.492 3
 95 10 22  2 32 29.9930000  0  8 14 28 18 29 27 22 19 31
  20982224.646     6452773.284 5   5045649.565 5
  21499449.208    -5828559.115 5  -4382024.923 5
  18276050.122   -31343438.703 7 -24241067.721 8
  18461834.442   -19387067.292 7 -15037020.998 9
  21978142.724    -6192505.641 4  -4732792.904 2
  21404379.560    -1452894.081 6  -1064090.609 6
  19676279.614    -1895420.219 6  -1405198.300 7
  21464959.356    -6853644.163 5  -5043440.831 4
 95 10 22  2 32 59.9930000  0  8 14 28 18 29 27 22 19 31
  20994944.380     6519584.767 6   5097710.449 5
  21483586.255    -5911907.145 5  -4446971.437 5
  18262212.435   -31416151.512 7 -24297727.052 8
  18457515.614   -19409754.751 7 -15054699.548 9
  21956272.521    -6307448.982 5  -4822359.119 2
  21415709.458    -1393326.729 5  -1017674.504 6
  19659474.692    -1983709.630 6  -1473995.231 7
  21441105.489    -6978975.028 5  -5141101.233 4
 95 10 22  2 33 29.9930000  0  8 14 28 18 29 27 22 19 31
  21007686.872     6586556.741 6   5149896.399 5
  21467799.591    -5994856.103 5  -4511606.959 5
  18248455.067   -31488467.662 7 -24354077.293 8
  18453279.341   -19432021.068 7 -15072049.921 9
  21934407.083    -6422302.511 4  -4911855.353 2
  21427084.192    -1333548.934 5   -971094.404 6
  19642713.763    -2071794.902 6  -1542633.070 7
  21417282.263    -7104194.222 5  -5238674.604 3
 95 10 22  2 33 59.9930000  0  8 14 28 18 29 27 22 19 31
  21020452.028     6653672.238 5   5202194.182 5
  21452092.544    -6077410.930 5  -4575935.385 5
  18234763.935   -31560404.038 7 -24410131.615 8
  18449119.075   -19453890.021 7 -15089090.672 9
  21912578.317    -6537061.778 5  -5001278.140 4
  21438498.739    -1273581.337 6   -924366.414 6
  19625993.474    -2159683.100 6  -1611117.369 7
  21393477.302    -7229315.398 5  -5336171.611 3
 95 10 22  2 34 29.9930000  0  8 14 28 18 29 27 22 19 31
  21033251.896     6720909.708 5   5254587.018 5
  21436453.755    -6159571.232 5  -4639956.388 5
  18221147.653   -31631959.628 7 -24465889.216 8
  18445029.372   -19475379.010 7 -15105835.343 9
  21890758.310    -6651728.453 5  -5090628.760 3
  21449943.310    -1213437.718 5   -877501.261 6
  19609299.247    -2247387.922 6  -1679458.767 7
  21369682.364    -7354322.103 5  -5433579.404 2
 95 10 22  2 34 59.9920000  0  8 14 28 18 29 27 22 19 31
  21046068.039     6788270.228 5   5307075.709 5
  21420893.469    -6241323.767 5  -4703659.658 5
  18207602.836   -31703123.572 7 -24521341.649 8
  18441011.719   -19496483.270 7 -15122280.237 9
  21868953.297    -6766286.413 5  -5179894.697 4
  21461424.352    -1153093.054 5   -830479.461 6
  19592652.336    -2334890.842 6  -1747642.855 7
  21345924.758    -7479189.924 5  -5530879.000 2
 95 10 22  2 35 29.9920000  0  8 14 28 18 29 27 22 19 31
  21058912.953     6855776.163 5   5359677.562 5
  21405409.781    -6322665.318 5  -4767042.841 5
  18194127.422   -31773913.457 7 -24576502.770 8
  18437059.789   -19517218.456 7 -15138437.706 8
  21847172.297    -6880739.383 5  -5269078.987 3
  21472939.813    -1092542.663 6   -783297.513 5
  19576027.211    -2422200.354 6  -1815676.403 6
  21322179.508    -7603909.312 5  -5628063.077 2
 95 10 22  2 35 59.9920000  0  8 14 28 18 29 27 22 19 31
  21071781.742     6923430.532 5   5412395.305 5
  21390013.188    -6403593.723 5  -4830103.872 5
  18180728.922   -31844327.032 7 -24631370.432 8
  18433183.703   -19537589.366 7 -15154311.088 9
  21825408.086    -6995092.302 5  -5358185.061 4
  21484498.984    -1031808.807 6   -735972.377 5
  19559446.867    -2509321.533 6  -1883562.955 7
  21298476.555    -7728468.668 5  -5725122.245 4
 95 10 22  2 36 29.9920000  0  8 14 28 18 29 27 22 19 31
  21084690.016     6991249.360 5   5465241.133 5
  21374694.617    -6484109.214 5  -4892843.201 5
  18167399.617   -31914370.807 7 -24685949.994 8
  18429379.141   -19557578.509 7 -15169887.051 8
  21803663.766    -7109349.909 5  -5447216.929 5
  21496088.047     -970895.399 6   -688507.379 5
  19542903.766    -2596258.258 6  -1951305.843 7
  21274796.117    -7852863.106 5  -5822052.950 1
 95 10 22  2 36 59.9920000  0  8 14 28 18 29 27 22 19 31
  21097627.578     7059239.690 5   5518220.596 5
  21359450.453    -6564211.907 5  -4955260.877 5
  18154140.008   -31984053.936 7 -24740248.550 8
  18425648.664   -19577186.065 7 -15185165.683 9
  21781939.586    -7223511.685 5  -5536174.139 5
  21507715.594     -909803.570 5   -640903.364 5
  19526399.102    -2682995.833 6  -2018893.566 7
  21251158.656    -7977103.072 5  -5918863.301 4
 95 10 22  2 37 29.9920000  0  8 14 28 18 29 27 22 19 31
  21110598.570     7127404.679 5   5571336.152 5
  21344285.195    -6643891.679 5  -5017349.007 5
  18140950.188   -32053355.269 7 -24794249.593 8
  18421991.203   -19596406.210 7 -15200142.436 8
  21760230.914    -7337578.756 5  -5625057.547 4
  21519372.227     -848541.219 5   -593166.475 5
  19509931.781    -2769544.273 6  -2086333.906 7
  21227553.250    -8101183.683 5  -6015549.480 4
 95 10 22  2 37 59.9920000  0  8 14 28 18 29 27 22 19 31
  21123596.320     7195721.196 5   5624569.801 5
  21329206.266    -6723159.394 5  -5079116.044 5
  18127836.492   -32122266.907 7 -24847946.960 8
  18418409.359   -19615226.989 7 -15214807.960 8
  21738539.992    -7451570.056 5  -5713881.874 4
  21531065.117     -787118.256 5   -545304.406 5
  19493494.156    -2855920.508 6  -2153640.047 7
  21203961.359    -8225134.379 5  -6112134.404 4
 95 10 22  2 38 29.9920000  0  8 14 28 18 29 27 22 19 31
  21136626.039     7264170.556 5   5677906.953 5
  21314197.922    -6802012.529 5  -5140560.028 6
  18114799.164   -32190788.161 7 -24901340.141 8
  18414907.547   -19633632.884 7 -15229150.228 8
  21716859.555    -7565485.820 5  -5802647.367 5
  21542774.617     -725536.728 5   -497318.788 5
  19477088.781    -2942127.034 6  -2220813.952 7
  21180402.625    -8348957.329 5  -6208619.790 3
 95 10 22  2 38 59.9920000  0  8 14 28 18 29 27 22 19 31
  21149660.508     7332732.312 5   5731331.669 5
  21299262.406    -6880450.012 5  -5201680.154 5
  18101833.508   -32258914.970 7 -24954425.977 8
  18411480.297   -19651636.242 7 -15243178.829 8
  21695198.859    -7679333.709 5  -5891359.972 5
  21554529.047     -663797.228 5   -449210.111 5
  19460716.531    -3028165.184 6  -2287856.676 7
  21156863.852    -8472664.678 5  -6305015.128 4
 95 10 22  2 39 29.9920000  0  8 14 28 18 29 27 22 19 31
  21162743.367     7401399.330 5   5784838.427 5
  21284426.391    -6958465.746 5  -5262471.624 5
  18088941.102   -32326653.023 7 -25007208.871 8
  18408131.297   -19669233.935 7 -15256891.318 8
  21673545.274    -7793119.812 5  -5980024.407 5
  21566311.117     -601896.587 5   -400975.836 5
  19444375.477    -3114048.318 6  -2354778.584 7
  21133340.086    -8596239.981 5  -6401307.554 3
 95 10 22  2 39 59.9920000  0  8 14 28 18 29 27 22 19 31
  21175813.852     7470150.587 5   5838410.828 5
  21269661.391    -7036055.085 5  -5322930.831 5
  18076121.766   -32394026.184 7 -25059707.439 8
  18404861.094   -19686415.172 7 -15270279.304 8
  21651900.836    -7906838.586 5  -6068636.388 5
  21578117.297     -539836.161 5   -352617.062 5
  19428063.438    -3199752.758 6  -2421561.262 7
  21109854.680    -8719668.565 5  -6497485.661 4
 95 10 22  2 40 29.9920000  0  8 14 28 18 29 27 22 19 31
  21188904.875     7538979.032 5   5892043.367 5
  21254972.641    -7113220.889 5  -5383060.015 5
  18063364.141   -32461057.020 7 -25111939.261 8
  18401668.344   -19703192.233 7 -15283352.342 8
  21630278.414    -8020499.122 5  -6157202.996 5
  21589950.117     -477630.213 5   -304144.905 5
  19411790.320    -3285277.321 6  -2488203.770 7
  21086397.773    -8842942.759 5  -6593543.443 4
 95 10 22  2 40 59.9920000  0  8 14 28 18 29 27 22 19 31
  21202029.367     7607884.749 5   5945736.145 5
  21240375.820    -7189963.174 5  -5442859.180 5
  18050673.008   -32527743.983 7 -25163903.125 8
  18398550.383   -19719574.563 7 -15296117.796 8
  21608650.344    -8134111.849 5  -6245732.341 5
  21601818.484     -415277.325 5   -255558.242 5
  19395546.695    -3370631.438 6  -2554713.458 7
  21062971.500    -8966058.748 5  -6689477.959 4
 95 10 22  2 41 29.9920000  0  8 14 28 18 29 27 22 19 31
  21215159.102     7676874.794 5   5999494.608 5
  21225846.195    -7266269.701 5  -5502318.812 5
  18038056.219   -32594060.611 7 -25215578.418 8
  18395509.617   -19735550.775 7 -15308566.793 8
  21587042.242    -8247653.296 5  -6334206.145 5
  21613719.352     -352780.768 5   -206859.614 5
  19379334.672    -3455808.620 6  -2621085.280 7
  21039575.047    -9088977.647 5  -6785258.894 4
 95 10 22  2 41 59.9920000  0  8 14 28 18 29 27 22 19 31
  21228308.086     7745962.033 5   6053328.809 5
  21211419.016    -7342132.103 5  -5561432.353 5
  18025513.031   -32659971.069 7 -25266937.218 8
  18392549.891   -19751105.255 7 -15320687.174 8
  21565462.680    -8361107.169 5  -6422611.697 5
  21625627.008     -290138.357 5   -158047.362 5
  19363161.117    -3540807.455 7  -2687318.140 7
  21016223.047    -9211709.562 5  -6880894.125 5
 95 10 22  2 42 29.9920000  0  8 14 28 18 29 27 22 19 31
  21241474.172     7815169.209 5   6107256.484 5
  21197054.539    -7417552.352 5  -5620201.365 5
  18013050.859   -32725452.352 7 -25317961.589 8
  18389666.680   -19766253.644 7 -15332491.117 8
  21543890.586    -8474480.209 5  -6510954.280 5
  21637574.430     -227352.676 5   -109123.447 5
  19347016.617    -3625646.432 6  -2753426.427 7
  20992898.469    -9334261.001 5  -6976388.732 5
 95 10 22  2 42 59.9920000  0  8 14 28 18 29 27 22 19 31
  21254654.828     7884480.460 5   6161265.243 5
  21182783.234    -7492535.423 5  -5678629.726 5
  18000673.313   -32790492.205 7 -25368641.995 8
  18386857.820   -19781009.573 7 -15343989.253 8
  21522329.656    -8587769.701 5  -6599231.730 5
  21649550.906     -164432.424 5    -60094.691 5
  19330902.758    -3710327.659 6  -2819411.791 7
  20969613.828    -9456625.230 5  -7071737.458 5
 95 10 22  2 43 29.9920000  0  8 14 28 18 29 27 22 19 31
  21267867.563     7953893.846 5   6215353.592 5
  21168607.727    -7567076.662 5  -5736713.797 5
  17988379.320   -32855089.058 7 -25418977.200 8
  18384126.617   -19795360.046 7 -15355171.444 8
  21500780.774    -8700967.471 5  -6687437.743 5
  21661551.539     -101372.950 5    -10957.443 5
  19314821.766    -3794835.085 7  -2885261.729 7
  20946360.016    -9578795.685 5  -7166935.192 4
 95 10 22  2 43 59.9920000  0  8 14 28 18 29 27 22 19 31
  21281096.969     8023404.327 5   6269517.590 4
  21154501.383    -7641177.368 5  -5794454.594 5
  17976170.188   -32919252.761 7 -25468974.889 8
  18381472.891   -19809305.868 7 -15366038.325 8
  21479257.453    -8814096.053 5  -6775589.824 5
  21673579.125      -38172.317 5     38289.809 5
  19298775.156    -3879155.974 7  -2950966.310 7
  20923155.984    -9700786.842 5  -7261993.216 5
 95 10 22  2 44 29.9920000  0  8 14 28 18 29 27 22 19 31
  21294341.492     8092998.059 5   6323746.476 4
  21140489.219    -7714829.964 5  -5851846.212 5
  17964041.906   -32982987.687 7 -25518638.459 8
  18378896.008   -19822845.517 7 -15376588.706 8
  21457735.898    -8927163.306 5  -6863694.123 5
  21685634.859       25166.562 5     87644.771 5
  19282766.234    -3963267.468 6  -3016507.724 7
  20899977.922    -9822563.340 5  -7356883.985 4
 95 10 22  2 44 59.9920000  0  8 14 28 18 29 27 22 19 31
  21307579.609     8162638.534 5   6378011.767 4
  21126558.352    -7788040.925 5  -5908893.704 5
  17951992.875   -33046309.859 7 -25567980.412 8
  18376395.898   -19835983.114 7 -15386825.800 8
  21436231.172    -9040177.624 5  -6951757.170 4
  21697712.523       88635.335 5    137100.953 5
  19266799.266    -4047179.565 7  -3081893.775 7
  20876842.852    -9944131.040 5  -7451612.034 5
 95 10 22  2 45 29.9920000  0  8 14 28 18 29 27 22 19 31
  21320858.703     8232345.028 5   6432328.505 5
  21112709.070    -7860803.962 5  -5965592.165 5
  17940018.984   -33109225.468 7 -25617005.567 8
  18373974.461   -19848712.743 7 -15396744.998 8
  21414736.594    -9153141.004 5  -7039780.537 5
  21709810.172      152238.363 5    186661.750 5
  19250870.945    -4130890.966 7  -3147123.426 7
  20853751.461   -10065493.544 5  -7546180.187 5
 95 10 22  2 45 59.9920000  0  8 14 28 18 29 27 22 19 31
  21334130.555     8302134.362 5   6486709.795 5
  21098959.555    -7933105.500 5  -6021931.016 5
  17928127.234   -33171719.544 7 -25665702.240 8
  18371627.344   -19861042.646 7 -15406352.724 8
  21393255.328    -9266038.619 5  -7127752.647 5
  21721936.844      215981.483 5    236331.722 5
  19234980.563    -4214396.118 7  -3212192.370 7
  20830702.781   -10186640.801 5  -7640580.640 4
 95 10 22  2 46 29.9920000  0  8 14 28 18 29 27 22 19 31
  21347430.250     8372005.879 5   6541155.123 3
  21085280.102    -8004947.050 5  -6077911.435 6
  17916314.852   -33233808.428 7 -25714083.186 8
  18369354.469   -19872984.406 7 -15415657.998 8
  21371788.695    -9378854.694 5  -7215661.237 4
  21734097.352      279859.542 5    286106.839 5
  19219122.531    -4297711.589 7  -3277113.502 7
  20807685.063   -10307571.315 5  -7734812.190 5
 95 10 22  2 46 59.9920000  0  8 14 28 18 29 27 22 19 31
  21360748.602     8441969.295 5   6595672.062 4
  21071700.070    -8076339.454 5  -6133541.869 5
  17904572.617   -33295509.708 7 -25762162.100 8
  18367152.414   -19884559.912 7 -15424677.880 8
  21350331.828    -9491583.388 5  -7303501.731 4
  21746279.422      343864.507 5    335980.825 5
  19203301.891    -4380851.991 7  -3341898.220 7
  20784706.305   -10428307.958 5  -7828892.659 5
 95 10 22  2 47 29.9920000  0  8 14 28 18 29 27 22 19 31
  21374083.281     8512053.725 5   6650283.300 5
  21058197.922    -8147266.618 5  -6188809.787 5
  17892906.781   -33356806.394 7 -25809925.750 8
  18365021.445   -19895748.305 7 -15433396.116 8
  21328901.305    -9604203.633 5  -7391257.731 4
  21758482.273      408007.697 5    385962.512 5
  19187518.133    -4463798.715 7  -3406532.023 7
  20761772.375   -10548836.373 5  -7922810.888 5
 95 10 22  2 47 59.9920000  0  8 14 28 18 29 27 22 19 31
  21387434.172     8582228.017 5   6704964.561 5
  21044786.875    -8217731.548 5  -6243717.506 6
  17881319.836   -33417698.411 7 -25857374.077 8
  18362967.266   -19906548.773 7 -15441812.069 8
  21307490.438    -9716713.711 5  -7478927.888 5
  21770711.336      472273.941 5    436040.107 5
  19171769.859    -4546564.915 7  -3471025.155 7
  20738879.180   -10669163.711 5  -8016572.439 4
 95 10 22  2 48 29.9920000  0  8 14 28 18 29 27 22 19 31
  21400804.617     8652475.855 5   6759703.123 4
  21031459.789    -8287733.318 5  -6298264.330 6
  17869805.836   -33478195.280 7 -25904514.496 8
  18360990.672   -19916937.288 7 -15449907.019 9
  21286102.328    -9829123.883 5  -7566520.203 4
  21782958.555      536652.803 5    486205.470 4
  19156053.070    -4629155.842 7  -3535381.715 7
  20716017.047   -10789285.339 5  -8110173.692 4
 95 10 22  2 48 59.9920000  0  8 14 28 18 29 27 22 19 31
  21414180.000     8722780.531 5   6814485.966 5
  21018230.844    -8357274.963 5  -6352452.602 6
  17858372.570   -33538292.057 7 -25951343.152 8
  18359094.680   -19926901.639 7 -15457671.450 9
  21264718.570    -9941451.517 5  -7654048.195 5
  21795235.633      601140.534 5    536455.633 4
  19140368.250    -4711576.840 7  -3599605.858 7
  20693187.406   -10909201.710 5  -8203615.012 5
 95 10 22  2 49 29.9920000  0  8 14 28 18 29 27 22 19 31
  21427563.750     8793117.147 4   6869293.695 5
  21005092.406    -8426346.882 5  -6406274.872 6
  17847012.500   -33597982.241 7 -25997854.985 8
  18357282.813   -19936422.744 7 -15465090.499 8
  21243363.453   -10053699.135 5  -7741513.834 4
  21807528.305      665731.694 5    586786.415 3
  19124718.078    -4793826.244 7  -3663696.291 7
  20670423.273   -11028902.144 5  -8296888.058 5
 95 10 22  2 49 59.9920000  0  8 14 28 18 29 27 22 19 31
  21440953.469     8863460.656 5   6924106.794 5
  20992042.274    -8494956.033 5  -6459736.533 6
  17835727.570   -33657274.003 7 -26044056.356 8
  18355550.680   -19945521.530 7 -15472180.463 8
  21222014.789   -10165883.946 5  -7828930.556 5
  21819831.336      730415.982 5    637189.763 3
  19109097.055    -4875908.814 7  -3727656.724 7
  20647693.008   -11148377.833 5  -8389985.983 5
 95 10 22  2 50 29.9920000  0  8 14 28 18 29 27 22 19 31
  21454343.945     8933828.494 5   6978938.868 5
  20979066.297    -8563091.419 5  -6512829.030 5
  17824523.773   -33716154.162 7 -26089936.994 8
  18353901.664   -19954192.960 7 -15478937.426 9
  21200684.852   -10278008.120 5  -7916299.996 5
  21832162.109      795204.793 5    687674.536 1
  19093514.680    -4957805.642 7  -3791472.422 7
  20624997.133   -11267600.170 5  -8482886.490 5
 95 10 22  2 50 59.9920000  0  8 14 28 18 29 27 22 19 31
  21467737.234     9004221.147 5   7033790.272 5
  20966189.625    -8630752.845 5  -6565552.210 6
  17813399.984   -33774607.046 7 -26135484.697 8
  18352327.734   -19962459.486 7 -15485378.877 9
  21179354.250   -10390066.135 5  -8003617.909 5
  21844509.703      860095.318 5    738238.606 2
  19077961.961    -5039525.123 7  -3855149.924 7
  20602361.000   -11386565.548 5  -8575586.781 5
 95 10 22  2 51 29.9920000  0  8 14 28 18 29 27 22 19 31
  21481136.898     9074636.794 5   7088659.597 5
  20953408.977    -8697944.468 5  -6617909.304 6
  17802361.023   -33832626.959 7 -26180695.022 8
  18350828.516   -19970334.640 7 -15491515.372 9
  21158041.117   -10502063.735 5  -8090888.753 5
  21856875.344      925072.383 5    788870.122 2
  19062442.461    -5121073.564 7  -3918694.157 7
  20579767.336   -11505285.453 5  -8668095.778 5
